| time (UTC) | temp F | wind direction | speed knots | gust knots | rain 1hr in | rain 24hr in | rain mn in | humidity % | barometer mb |
| 20260506193219 | 53 | 281 | 5.2 | 10.4 | 0.00 | 0.00 | 0.00 | 86 | 1020.3 |
| 20260506193115 | 53 | 259 | 5.2 | 10.4 | 0.00 | 0.00 | 0.00 | 86 | 1020.3 |
| 20260506193015 | 53 | 229 | 5.2 | 10.4 | 0.00 | 0.00 | 0.00 | 86 | 1020.3 |
| 20260506192959 | 53 | 233 | 5.2 | 10.4 | 0.00 | 0.00 | 0.00 | 86 | 1020.3 |
| 20260506192815 | 53 | 228 | 5.2 | 10.4 | 0.00 | 0.00 | 0.00 | 86 | 1020.3 |
| 20260506192713 | 53 | 232 | 5.2 | 10.4 | 0.00 | 0.00 | 0.00 | 87 | 1020.3 |
| 20260506192607 | 53 | 243 | 4.3 | 10.4 | 0.00 | 0.00 | 0.00 | 87 | 1020.3 |
| 20260506192507 | 53 | 240 | 4.3 | 9.6 | 0.00 | 0.00 | 0.00 | 87 | 1020.2 |
| 20260506192407 | 53 | 228 | 4.3 | 9.6 | 0.00 | 0.00 | 0.00 | 87 | 1020.3 |
| 20260506192307 | 53 | 241 | 4.3 | 9.6 | 0.00 | 0.00 | 0.00 | 87 | 1020.2 |
| 20260506192206 | 53 | 257 | 3.5 | 9.6 | 0.00 | 0.00 | 0.00 | 87 | 1020.2 |
| 20260506192101 | 53 | 260 | 3.5 | 9.6 | 0.00 | 0.00 | 0.00 | 87 | 1020.2 |
| 20260506192000 | 53 | 284 | 3.5 | 8.7 | 0.00 | 0.00 | 0.00 | 87 | 1020.1 |
| 20260506191900 | 53 | 275 | 3.5 | 8.7 | 0.00 | 0.00 | 0.00 | 87 | 1020.2 |
| 20260506191801 | 53 | 271 | 3.5 | 8.7 | 0.00 | 0.00 | 0.00 | 87 | 1020.2 |
| 20260506191700 | 53 | 243 | 3.5 | 8.7 | 0.00 | 0.00 | 0.00 | 87 | 1020.2 |
| 20260506191557 | 53 | 276 | 4.3 | 8.7 | 0.00 | 0.00 | 0.00 | 88 | 1020.2 |
| 20260506191455 | 53 | 285 | 4.3 | 8.7 | 0.00 | 0.00 | 0.00 | 87 | 1020.2 |
| 20260506191355 | 53 | 256 | 4.3 | 8.7 | 0.00 | 0.00 | 0.00 | 88 | 1020.2 |
| 20260506191255 | 53 | 215 | 4.3 | 8.7 | 0.00 | 0.00 | 0.00 | 87 | 1020.2 |
| 20260506191155 | 53 | 288 | 4.3 | 8.7 | 0.00 | 0.00 | 0.00 | 87 | 1020.2 |
| 20260506191051 | 53 | 229 | 5.2 | 9.6 | 0.00 | 0.00 | 0.00 | 87 | 1020.2 |
| 20260506190949 | 53 | 229 | 5.2 | 9.6 | 0.00 | 0.00 | 0.00 | 87 | 1020.2 |
| 20260506190849 | 53 | 238 | 5.2 | 9.6 | 0.00 | 0.00 | 0.00 | 87 | 1020.2 |
| 20260506190749 | 53 | 255 | 5.2 | 9.6 | 0.00 | 0.00 | 0.00 | 87 | 1020.2 |
| 20260506190649 | 53 | 240 | 5.2 | 9.6 | 0.00 | 0.00 | 0.00 | 88 | 1020.2 |
| 20260506190543 | 53 | 225 | 4.3 | 9.6 | 0.00 | 0.00 | 0.00 | 88 | 1020.2 |
| 20260506190443 | 53 | 223 | 4.3 | 9.6 | 0.00 | 0.00 | 0.00 | 88 | 1020.2 |
| 20260506190343 | 53 | 262 | 4.3 | 9.6 | 0.00 | 0.00 | 0.00 | 88 | 1020.1 |
| 20260506190243 | 53 | 238 | 4.3 | 9.6 | 0.00 | 0.00 | 0.00 | 88 | 1020.1 |
| 20260506190142 | 53 | 248 | 4.3 | 9.6 | 0.00 | 0.00 | 0.00 | 88 | 1020.2 |
| 20260506190037 | 53 | 217 | 4.3 | 9.6 | 0.00 | 0.00 | 0.00 | 88 | 1020.2 |
| 20260506185937 | 53 | 255 | 4.3 | 9.6 | 0.00 | 0.00 | 0.00 | 88 | 1020.1 |
| 20260506185837 | 53 | 246 | 3.5 | 7.8 | 0.00 | 0.00 | 0.00 | 88 | 1020.1 |
| 20260506185737 | 53 | 246 | 3.5 | 7.8 | 0.00 | 0.00 | 0.00 | 88 | 1020.1 |
| 20260506185637 | 53 | 243 | 3.5 | 7.8 | 0.00 | 0.00 | 0.00 | 88 | 1020.0 |
| 20260506185531 | 53 | 263 | 3.5 | 7.8 | 0.00 | 0.00 | 0.00 | 88 | 1020.1 |
| 20260506185431 | 53 | 243 | 3.5 | 7.8 | 0.00 | 0.00 | 0.00 | 88 | 1020.0 |
| 20260506185231 | 53 | 246 | 3.5 | 7.8 | 0.00 | 0.00 | 0.00 | 88 | 1020.0 |
| 20260506185131 | 53 | 221 | 3.5 | 7.8 | 0.00 | 0.00 | 0.00 | 88 | 1020.0 |
| 20260506185025 | 53 | 202 | 3.5 | 7.8 | 0.00 | 0.00 | 0.00 | 88 | 1020.0 |
| 20260506184925 | 53 | 256 | 3.5 | 7.8 | 0.00 | 0.00 | 0.00 | 88 | 1020.0 |
| 20260506184825 | 53 | 240 | 3.5 | 7.8 | 0.00 | 0.00 | 0.00 | 88 | 1020.0 |
| 20260506184725 | 53 | 231 | 3.5 | 7.8 | 0.00 | 0.00 | 0.00 | 88 | 1020.0 |
| 20260506184624 | 53 | 271 | 3.5 | 7.8 | 0.00 | 0.00 | 0.00 | 88 | 1020.0 |
| 20260506184523 | 53 | 259 | 3.5 | 7.8 | 0.00 | 0.00 | 0.00 | 88 | 1020.0 |
| 20260506184423 | 53 | 248 | 3.5 | 7.8 | 0.00 | 0.00 | 0.00 | 88 | 1020.0 |
| 20260506184323 | 53 | 283 | 3.5 | 7.8 | 0.00 | 0.00 | 0.00 | 88 | 1020.1 |
| 20260506184221 | 53 | 242 | 3.5 | 7.8 | 0.00 | 0.00 | 0.00 | 88 | 1020.0 |
| 20260506184119 | 53 | 238 | 3.5 | 7.8 | 0.00 | 0.00 | 0.00 | 88 | 1020.1 |
| 20260506184013 | 53 | 238 | 3.5 | 7.8 | 0.00 | 0.00 | 0.00 | 88 | 1020.0 |
| 20260506183913 | 53 | 252 | 3.5 | 7.8 | 0.00 | 0.00 | 0.00 | 88 | 1020.0 |
| 20260506183813 | 53 | 274 | 3.5 | 7.8 | 0.00 | 0.00 | 0.00 | 88 | 1020.0 |
| 20260506183713 | 53 | 257 | 3.5 | 7.0 | 0.00 | 0.00 | 0.00 | 88 | 1020.0 |
| 20260506183613 | 53 | 246 | 2.6 | 7.0 | 0.00 | 0.00 | 0.00 | 88 | 1020.0 |
| 20260506183509 | 53 | 236 | 2.6 | 6.1 | 0.00 | 0.00 | 0.00 | 88 | 1020.0 |
| 20260506183409 | 53 | 244 | 2.6 | 6.1 | 0.00 | 0.00 | 0.00 | 88 | 1020.0 |
| 20260506183309 | 53 | 252 | 2.6 | 6.1 | 0.00 | 0.00 | 0.00 | 88 | 1020.0 |
| 20260506183209 | 53 | 251 | 2.6 | 6.1 | 0.00 | 0.00 | 0.00 | 88 | 1020.0 |
| 20260506183107 | 53 | 240 | 2.6 | 6.1 | 0.00 | 0.00 | 0.00 | 88 | 1020.0 |
| 20260506183001 | 53 | 263 | 2.6 | 6.1 | 0.00 | 0.00 | 0.00 | 88 | 1020.0 |
| 20260506182901 | 53 | 237 | 2.6 | 6.1 | 0.00 | 0.00 | 0.00 | 87 | 1020.0 |
| 20260506182801 | 53 | 225 | 2.6 | 6.1 | 0.00 | 0.00 | 0.00 | 87 | 1020.0 |
| 20260506182701 | 53 | 252 | 2.6 | 6.1 | 0.00 | 0.00 | 0.00 | 87 | 1019.9 |
| 20260506182600 | 53 | 252 | 2.6 | 6.1 | 0.00 | 0.00 | 0.00 | 87 | 1020.0 |
| 20260506182457 | 53 | 257 | 2.6 | 6.1 | 0.00 | 0.00 | 0.00 | 87 | 1019.9 |
| 20260506182355 | 53 | 286 | 2.6 | 6.1 | 0.00 | 0.00 | 0.00 | 87 | 1019.9 |
| 20260506182255 | 53 | 255 | 2.6 | 6.1 | 0.00 | 0.00 | 0.00 | 87 | 1019.8 |
| 20260506182155 | 53 | 236 | 2.6 | 5.2 | 0.00 | 0.00 | 0.00 | 87 | 1019.8 |
| 20260506182055 | 53 | 276 | 2.6 | 5.2 | 0.00 | 0.00 | 0.00 | 87 | 1019.8 |
| 20260506181953 | 53 | 291 | 2.6 | 6.1 | 0.00 | 0.00 | 0.00 | 87 | 1019.8 |
| 20260506181854 | 53 | 279 | 2.6 | 6.1 | 0.00 | 0.00 | 0.00 | 87 | 1019.8 |
| 20260506181753 | 53 | 277 | 2.6 | 6.1 | 0.00 | 0.00 | 0.00 | 87 | 1019.8 |
| 20260506181651 | 53 | 272 | 2.6 | 6.1 | 0.00 | 0.00 | 0.00 | 87 | 1019.8 |
| 20260506181549 | 53 | 248 | 2.6 | 6.1 | 0.00 | 0.00 | 0.00 | 87 | 1019.8 |
| 20260506181442 | 53 | 270 | 2.6 | 6.1 | 0.00 | 0.00 | 0.00 | 87 | 1019.8 |
| 20260506181343 | 53 | 235 | 2.6 | 6.1 | 0.00 | 0.00 | 0.00 | 87 | 1019.8 |
| 20260506181242 | 53 | 245 | 2.6 | 6.1 | 0.00 | 0.00 | 0.00 | 87 | 1019.8 |
| 20260506181143 | 53 | 264 | 2.6 | 7.8 | 0.00 | 0.00 | 0.00 | 87 | 1019.8 |
| 20260506181042 | 53 | 281 | 2.6 | 7.8 | 0.00 | 0.00 | 0.00 | 87 | 1019.8 |
| 20260506180937 | 53 | 261 | 2.6 | 7.8 | 0.00 | 0.00 | 0.00 | 87 | 1019.8 |
| 20260506180837 | 53 | 265 | 2.6 | 7.8 | 0.00 | 0.00 | 0.00 | 87 | 1019.8 |
| 20260506180737 | 53 | 265 | 2.6 | 7.8 | 0.00 | 0.00 | 0.00 | 87 | 1019.7 |
| 20260506180637 | 53 | 264 | 2.6 | 7.8 | 0.00 | 0.00 | 0.00 | 87 | 1019.8 |
| 20260506180536 | 53 | 294 | 2.6 | 7.8 | 0.00 | 0.00 | 0.00 | 87 | 1019.8 |
| 20260506180433 | 53 | 294 | 2.6 | 7.8 | 0.00 | 0.00 | 0.00 | 87 | 1019.8 |
| 20260506180331 | 53 | 294 | 2.6 | 7.8 | 0.00 | 0.00 | 0.00 | 87 | 1019.8 |
| 20260506180231 | 53 | 246 | 2.6 | 7.8 | 0.00 | 0.00 | 0.00 | 87 | 1019.8 |
| 20260506180131 | 53 | 252 | 2.6 | 7.0 | 0.00 | 0.00 | 0.00 | 87 | 1019.8 |
| 20260506180031 | 53 | 271 | 2.6 | 7.0 | 0.00 | 0.00 | 0.00 | 87 | 1019.8 |
| 20260506175924 | 53 | 271 | 2.6 | 7.0 | 0.00 | 0.00 | 0.00 | 87 | 1019.8 |
| 20260506175825 | 53 | 238 | 2.6 | 7.0 | 0.00 | 0.00 | 0.00 | 87 | 1019.8 |
| 20260506175725 | 53 | 250 | 1.7 | 7.0 | 0.00 | 0.00 | 0.00 | 87 | 1019.8 |
| 20260506175625 | 53 | 248 | 1.7 | 7.0 | 0.00 | 0.00 | 0.00 | 87 | 1019.8 |
| 20260506175525 | 53 | 281 | 1.7 | 7.0 | 0.00 | 0.00 | 0.00 | 87 | 1019.9 |
| 20260506175421 | 53 | 271 | 1.7 | 7.0 | 0.00 | 0.00 | 0.00 | 87 | 1019.9 |
| 20260506175319 | 53 | 237 | 2.6 | 7.0 | 0.00 | 0.00 | 0.00 | 87 | 1019.9 |
| 20260506175218 | 53 | 223 | 2.6 | 7.0 | 0.00 | 0.00 | 0.00 | 87 | 1019.9 |
| 20260506175118 | 53 | 223 | 2.6 | 7.8 | 0.00 | 0.00 | 0.00 | 87 | 1019.9 |
| 20260506175018 | 53 | 252 | 2.6 | 7.8 | 0.00 | 0.00 | 0.00 | 87 | 1019.9 |
| 20260506174915 | 53 | 238 | 2.6 | 7.8 | 0.00 | 0.00 | 0.00 | 87 | 1019.9 |
| 20260506174813 | 53 | 249 | 2.6 | 7.8 | 0.00 | 0.00 | 0.00 | 87 | 1019.8 |
| 20260506174713 | 53 | 244 | 3.5 | 7.8 | 0.00 | 0.00 | 0.00 | 87 | 1019.9 |
| 20260506174613 | 53 | 253 | 3.5 | 7.8 | 0.00 | 0.00 | 0.00 | 87 | 1019.8 |
| 20260506174513 | 53 | 261 | 3.5 | 7.8 | 0.00 | 0.00 | 0.00 | 87 | 1019.9 |
| 20260506174407 | 53 | 250 | 3.5 | 7.8 | 0.00 | 0.00 | 0.00 | 87 | 1019.9 |
| 20260506174307 | 53 | 255 | 3.5 | 7.8 | 0.00 | 0.00 | 0.00 | 87 | 1019.9 |
| 20260506174207 | 53 | 278 | 3.5 | 7.8 | 0.00 | 0.00 | 0.00 | 87 | 1019.8 |
| 20260506174106 | 53 | 235 | 3.5 | 7.0 | 0.00 | 0.00 | 0.00 | 87 | 1019.8 |
| 20260506174006 | 53 | 290 | 3.5 | 7.0 | 0.00 | 0.00 | 0.00 | 86 | 1019.8 |
| 20260506173905 | 53 | 265 | 3.5 | 7.0 | 0.00 | 0.00 | 0.00 | 86 | 1019.8 |
| 20260506173805 | 53 | 294 | 3.5 | 7.0 | 0.00 | 0.00 | 0.00 | 86 | 1019.8 |
| 20260506173703 | 53 | 248 | 3.5 | 7.0 | 0.00 | 0.00 | 0.00 | 86 | 1019.8 |
| 20260506173603 | 53 | 249 | 3.5 | 7.0 | 0.00 | 0.00 | 0.00 | 86 | 1019.8 |
| 20260506173500 | 53 | 270 | 3.5 | 7.0 | 0.00 | 0.00 | 0.00 | 86 | 1019.9 |
| 20260506173356 | 53 | 253 | 3.5 | 7.8 | 0.00 | 0.00 | 0.00 | 86 | 1019.8 |
| 20260506173255 | 53 | 258 | 3.5 | 7.8 | 0.00 | 0.00 | 0.00 | 86 | 1019.8 |
| 20260506173241 | 53 | 244 | 3.5 | 7.8 | 0.00 | 0.00 | 0.00 | 86 | 1019.8 |
| 20260506173055 | 53 | 277 | 3.5 | 7.8 | 0.00 | 0.00 | 0.00 | 86 | 1019.9 |
| 20260506172955 | 53 | 271 | 3.5 | 7.8 | 0.00 | 0.00 | 0.00 | 86 | 1019.9 |
| 20260506172849 | 53 | 252 | 3.5 | 7.8 | 0.00 | 0.00 | 0.00 | 86 | 1019.8 |
| 20260506172749 | 53 | 240 | 2.6 | 7.8 | 0.00 | 0.00 | 0.00 | 86 | 1019.9 |
| 20260506172649 | 53 | 258 | 3.5 | 7.8 | 0.00 | 0.00 | 0.00 | 86 | 1019.9 |
| 20260506172549 | 53 | 225 | 3.5 | 7.8 | 0.00 | 0.00 | 0.00 | 86 | 1019.9 |
| 20260506172449 | 53 | 246 | 2.6 | 7.8 | 0.00 | 0.00 | 0.00 | 86 | 1019.8 |
| 20260506172342 | 53 | 286 | 3.5 | 7.0 | 0.00 | 0.00 | 0.00 | 86 | 1019.8 |
| 20260506172242 | 53 | 269 | 2.6 | 7.0 | 0.00 | 0.00 | 0.00 | 86 | 1019.8 |
| 20260506172142 | 53 | 254 | 2.6 | 7.0 | 0.00 | 0.00 | 0.00 | 86 | 1019.8 |
| 20260506172042 | 53 | 246 | 2.6 | 7.0 | 0.00 | 0.00 | 0.00 | 86 | 1019.8 |
| 20260506171942 | 53 | 265 | 2.6 | 7.0 | 0.00 | 0.00 | 0.00 | 85 | 1019.8 |
| 20260506171839 | 53 | 286 | 3.5 | 7.0 | 0.00 | 0.00 | 0.00 | 85 | 1019.8 |
| 20260506171737 | 53 | 286 | 3.5 | 7.0 | 0.00 | 0.00 | 0.00 | 85 | 1019.8 |
| 20260506171637 | 53 | 269 | 3.5 | 8.7 | 0.00 | 0.00 | 0.00 | 85 | 1019.7 |
| 20260506171537 | 53 | 250 | 3.5 | 8.7 | 0.00 | 0.00 | 0.00 | 85 | 1019.7 |
| 20260506171437 | 53 | 258 | 3.5 | 8.7 | 0.00 | 0.00 | 0.00 | 85 | 1019.7 |
| 20260506171335 | 53 | 275 | 2.6 | 8.7 | 0.00 | 0.00 | 0.00 | 85 | 1019.7 |
| 20260506171235 | 53 | 273 | 2.6 | 8.7 | 0.00 | 0.00 | 0.00 | 85 | 1019.7 |
| 20260506171032 | 53 | 242 | 3.5 | 8.7 | 0.00 | 0.00 | 0.00 | 85 | 1019.7 |
| 20260506170930 | 53 | 232 | 3.5 | 8.7 | 0.00 | 0.00 | 0.00 | 85 | 1019.7 |
| 20260506170825 | 53 | 234 | 3.5 | 8.7 | 0.00 | 0.00 | 0.00 | 85 | 1019.6 |
| 20260506170725 | 53 | 240 | 3.5 | 8.7 | 0.00 | 0.00 | 0.00 | 85 | 1019.6 |
| 20260506170627 | 53 | 278 | 4.3 | 8.7 | 0.00 | 0.00 | 0.00 | 85 | 1019.6 |
| 20260506170525 | 53 | 289 | 4.3 | 8.7 | 0.00 | 0.00 | 0.00 | 85 | 1019.6 |
| 20260506170425 | 53 | 286 | 4.3 | 8.7 | 0.00 | 0.00 | 0.00 | 84 | 1019.6 |
| 20260506170321 | 53 | 289 | 4.3 | 8.7 | 0.00 | 0.00 | 0.00 | 84 | 1019.6 |
| 20260506170218 | 53 | 252 | 4.3 | 8.7 | 0.00 | 0.00 | 0.00 | 84 | 1019.6 |
| 20260506170118 | 53 | 242 | 4.3 | 8.7 | 0.00 | 0.00 | 0.00 | 84 | 1019.5 |
| 20260506170018 | 53 | 230 | 4.3 | 8.7 | 0.00 | 0.00 | 0.00 | 84 | 1019.5 |
| 20260506165918 | 53 | 254 | 3.5 | 8.7 | 0.00 | 0.00 | 0.00 | 84 | 1019.5 |
| 20260506165813 | 53 | 243 | 3.5 | 8.7 | 0.00 | 0.00 | 0.00 | 84 | 1019.5 |
| 20260506165713 | 53 | 236 | 3.5 | 8.7 | 0.00 | 0.00 | 0.00 | 84 | 1019.5 |
| 20260506165613 | 53 | 248 | 2.6 | 7.8 | 0.00 | 0.00 | 0.00 | 84 | 1019.5 |
| 20260506165513 | 53 | 219 | 2.6 | 7.8 | 0.00 | 0.00 | 0.00 | 84 | 1019.5 |
| 20260506165413 | 53 | 231 | 2.6 | 7.8 | 0.00 | 0.00 | 0.00 | 84 | 1019.5 |
| 20260506165311 | 53 | 252 | 2.6 | 7.8 | 0.00 | 0.00 | 0.00 | 84 | 1019.5 |
| 20260506165211 | 53 | 278 | 2.6 | 7.8 | 0.00 | 0.00 | 0.00 | 84 | 1019.5 |
| 20260506165110 | 53 | 240 | 2.6 | 7.0 | 0.00 | 0.00 | 0.00 | 83 | 1019.5 |
| 20260506165009 | 53 | 275 | 2.6 | 7.0 | 0.00 | 0.00 | 0.00 | 83 | 1019.5 |
| 20260506164906 | 53 | 270 | 2.6 | 7.0 | 0.00 | 0.00 | 0.00 | 83 | 1019.5 |
| 20260506164801 | 53 | 249 | 3.5 | 7.0 | 0.00 | 0.00 | 0.00 | 83 | 1019.5 |
| 20260506164701 | 53 | 265 | 2.6 | 7.0 | 0.00 | 0.00 | 0.00 | 83 | 1019.5 |
| 20260506164601 | 53 | 232 | 2.6 | 7.0 | 0.00 | 0.00 | 0.00 | 83 | 1019.5 |
| 20260506164501 | 53 | 271 | 2.6 | 7.0 | 0.00 | 0.00 | 0.00 | 83 | 1019.5 |
| 20260506164400 | 53 | 258 | 2.6 | 7.0 | 0.00 | 0.00 | 0.00 | 83 | 1019.5 |
| 20260506164255 | 53 | 262 | 2.6 | 7.0 | 0.00 | 0.00 | 0.00 | 83 | 1019.4 |
| 20260506164155 | 53 | 237 | 2.6 | 7.0 | 0.00 | 0.00 | 0.00 | 83 | 1019.4 |
| 20260506164055 | 53 | 238 | 2.6 | 7.0 | 0.00 | 0.00 | 0.00 | 83 | 1019.4 |
| 20260506163955 | 53 | 216 | 2.6 | 7.0 | 0.00 | 0.00 | 0.00 | 83 | 1019.4 |
| 20260506163854 | 53 | 253 | 2.6 | 7.0 | 0.00 | 0.00 | 0.00 | 83 | 1019.3 |
| 20260506163753 | 53 | 242 | 2.6 | 7.8 | 0.00 | 0.00 | 0.00 | 83 | 1019.4 |
| 20260506163652 | 53 | 237 | 2.6 | 7.8 | 0.00 | 0.00 | 0.00 | 83 | 1019.3 |
| 20260506163553 | 53 | 243 | 2.6 | 7.8 | 0.00 | 0.00 | 0.00 | 83 | 1019.3 |
| 20260506163451 | 53 | 256 | 2.6 | 7.8 | 0.00 | 0.00 | 0.00 | 83 | 1019.3 |
| 20260506163349 | 53 | 241 | 2.6 | 7.8 | 0.00 | 0.00 | 0.00 | 83 | 1019.3 |
| 20260506163242 | 53 | 242 | 2.6 | 7.8 | 0.00 | 0.00 | 0.00 | 83 | 1019.3 |
| 20260506163142 | 53 | 265 | 1.7 | 7.8 | 0.00 | 0.00 | 0.00 | 83 | 1019.3 |
| 20260506163042 | 53 | 260 | 1.7 | 7.8 | 0.00 | 0.00 | 0.00 | 83 | 1019.3 |
| 20260506162942 | 53 | 256 | 1.7 | 7.8 | 0.00 | 0.00 | 0.00 | 83 | 1019.4 |
| 20260506162842 | 53 | 265 | 1.7 | 7.8 | 0.00 | 0.00 | 0.00 | 83 | 1019.4 |
| 20260506162742 | 53 | 243 | 1.7 | 6.1 | 0.00 | 0.00 | 0.00 | 83 | 1019.3 |
| 20260506162725 | 53 | 266 | 1.7 | 6.1 | 0.00 | 0.00 | 0.00 | 83 | 1019.4 |
| 20260506162538 | 53 | 266 | 1.7 | 6.1 | 0.00 | 0.00 | 0.00 | 83 | 1019.3 |
| 20260506162438 | 53 | 250 | 1.7 | 6.1 | 0.00 | 0.00 | 0.00 | 83 | 1019.3 |
| 20260506162336 | 53 | 300 | 1.7 | 6.1 | 0.00 | 0.00 | 0.00 | 83 | 1019.4 |
| 20260506162233 | 53 | 271 | 1.7 | 6.1 | 0.00 | 0.00 | 0.00 | 83 | 1019.4 |
| 20260506162031 | 53 | 284 | 1.7 | 4.3 | 0.00 | 0.00 | 0.00 | 83 | 1019.4 |
| 20260506161931 | 53 | 257 | 0.9 | 3.5 | 0.00 | 0.00 | 0.00 | 83 | 1019.4 |
| 20260506161831 | 53 | 273 | 0.9 | 3.5 | 0.00 | 0.00 | 0.00 | 83 | 1019.3 |
| 20260506161726 | 53 | 256 | 0.9 | 3.5 | 0.00 | 0.00 | 0.00 | 83 | 1019.4 |
| 20260506161524 | 53 | 247 | 0.9 | 3.5 | 0.00 | 0.00 | 0.00 | 82 | 1019.4 |
| 20260506161425 | 53 | 247 | 1.7 | 4.3 | 0.00 | 0.00 | 0.00 | 82 | 1019.3 |
| 20260506161324 | 53 | 247 | 1.7 | 6.1 | 0.00 | 0.00 | 0.00 | 82 | 1019.3 |
| 20260506161223 | 53 | 247 | 1.7 | 6.1 | 0.00 | 0.00 | 0.00 | 82 | 1019.3 |
| 20260506161023 | 53 | 247 | 1.7 | 6.1 | 0.00 | 0.00 | 0.00 | 82 | 1019.3 |
| 20260506160921 | 53 | 247 | 1.7 | 6.1 | 0.00 | 0.00 | 0.00 | 82 | 1019.3 |
| 20260506160819 | 53 | 227 | 1.7 | 6.1 | 0.00 | 0.00 | 0.00 | 82 | 1019.3 |
| 20260506160730 | 53 | 281 | 1.7 | 6.1 | 0.00 | 0.00 | 0.00 | 82 | 1019.3 |
| 20260506160720 | 53 | 284 | 1.7 | 6.1 | 0.00 | 0.00 | 0.00 | 82 | 1019.3 |
| 20260506160519 | 53 | 269 | 1.7 | 6.1 | 0.00 | 0.00 | 0.00 | 82 | 1019.4 |
| 20260506160317 | 53 | 250 | 1.7 | 6.1 | 0.00 | 0.00 | 0.00 | 82 | 1019.3 |
| 20260506160217 | 53 | 269 | 1.7 | 6.1 | 0.00 | 0.00 | 0.00 | 82 | 1019.3 |
| 20260506160017 | 53 | 206 | 1.7 | 4.3 | 0.00 | 0.00 | 0.00 | 82 | 1019.3 |
| 20260506155917 | 53 | 206 | 1.7 | 4.3 | 0.00 | 0.00 | 0.00 | 82 | 1019.3 |
| 20260506155817 | 53 | 239 | 1.7 | 4.3 | 0.00 | 0.00 | 0.00 | 82 | 1019.3 |
| 20260506155717 | 53 | 250 | 1.7 | 4.3 | 0.00 | 0.00 | 0.00 | 82 | 1019.3 |
| 20260506155512 | 53 | 251 | 1.7 | 4.3 | 0.00 | 0.00 | 0.00 | 81 | 1019.3 |
| 20260506155412 | 53 | 243 | 1.7 | 8.7 | 0.00 | 0.00 | 0.00 | 81 | 1019.3 |
| 20260506155312 | 53 | 259 | 1.7 | 8.7 | 0.00 | 0.00 | 0.00 | 81 | 1019.3 |
| 20260506155212 | 53 | 273 | 1.7 | 8.7 | 0.00 | 0.00 | 0.00 | 81 | 1019.3 |
| 20260506155112 | 53 | 273 | 1.7 | 8.7 | 0.00 | 0.00 | 0.00 | 81 | 1019.2 |
| 20260506155012 | 53 | 273 | 1.7 | 8.7 | 0.00 | 0.00 | 0.00 | 81 | 1019.2 |
| 20260506154912 | 53 | 252 | 1.7 | 8.7 | 0.00 | 0.00 | 0.00 | 81 | 1019.2 |
| 20260506154812 | 53 | 273 | 1.7 | 8.7 | 0.00 | 0.00 | 0.00 | 81 | 1019.2 |
| 20260506154710 | 53 | 222 | 1.7 | 8.7 | 0.00 | 0.00 | 0.00 | 81 | 1019.2 |
| 20260506154610 | 53 | 222 | 1.7 | 8.7 | 0.00 | 0.00 | 0.00 | 81 | 1019.2 |
| 20260506154510 | 53 | 267 | 2.6 | 8.7 | 0.00 | 0.00 | 0.00 | 81 | 1019.2 |
| 20260506154410 | 53 | 234 | 2.6 | 8.7 | 0.00 | 0.00 | 0.00 | 81 | 1019.2 |
| 20260506154307 | 53 | 281 | 2.6 | 8.7 | 0.00 | 0.00 | 0.00 | 81 | 1019.2 |
| 20260506154207 | 53 | 249 | 2.6 | 8.7 | 0.00 | 0.00 | 0.00 | 81 | 1019.2 |
| 20260506154107 | 53 | 249 | 2.6 | 8.7 | 0.00 | 0.00 | 0.00 | 81 | 1019.2 |
| 20260506154007 | 53 | 255 | 2.6 | 8.7 | 0.00 | 0.00 | 0.00 | 81 | 1019.2 |
| 20260506153906 | 53 | 234 | 2.6 | 8.7 | 0.00 | 0.00 | 0.00 | 81 | 1019.2 |
| 20260506153806 | 53 | 238 | 2.6 | 8.7 | 0.00 | 0.00 | 0.00 | 81 | 1019.2 |
| 20260506153706 | 53 | 234 | 2.6 | 8.7 | 0.00 | 0.00 | 0.00 | 81 | 1019.2 |
| 20260506153606 | 53 | 236 | 2.6 | 8.7 | 0.00 | 0.00 | 0.00 | 81 | 1019.2 |
| 20260506153506 | 53 | 264 | 2.6 | 8.7 | 0.00 | 0.00 | 0.00 | 81 | 1019.2 |
| 20260506153406 | 53 | 230 | 1.7 | 6.1 | 0.00 | 0.00 | 0.00 | 81 | 1019.1 |
| 20260506153306 | 53 | 266 | 1.7 | 6.1 | 0.00 | 0.00 | 0.00 | 81 | 1019.1 |
| 20260506153221 | 53 | 266 | 1.7 | 6.1 | 0.00 | 0.00 | 0.00 | 81 | 1019.1 |
| 20260506153106 | 53 | 251 | 2.6 | 6.1 | 0.00 | 0.00 | 0.00 | 81 | 1019.2 |
| 20260506152906 | 53 | 263 | 1.7 | 6.1 | 0.00 | 0.00 | 0.00 | 81 | 1019.2 |
| 20260506152807 | 53 | 263 | 2.6 | 6.1 | 0.00 | 0.00 | 0.00 | 81 | 1019.2 |
| 20260506152706 | 53 | 263 | 1.7 | 6.1 | 0.00 | 0.00 | 0.00 | 81 | 1019.2 |
| 20260506152607 | 53 | 260 | 1.7 | 6.1 | 0.00 | 0.00 | 0.00 | 81 | 1019.2 |
| 20260506152506 | 53 | 252 | 1.7 | 6.1 | 0.00 | 0.00 | 0.00 | 81 | 1019.2 |
| 20260506152402 | 53 | 252 | 1.7 | 6.1 | 0.00 | 0.00 | 0.00 | 81 | 1019.2 |
| 20260506152305 | 53 | 240 | 1.7 | 6.1 | 0.00 | 0.00 | 0.00 | 81 | 1019.1 |
| 20260506152203 | 53 | 253 | 1.7 | 5.2 | 0.00 | 0.00 | 0.00 | 81 | 1019.1 |
| 20260506152103 | 53 | 233 | 1.7 | 5.2 | 0.00 | 0.00 | 0.00 | 81 | 1019.2 |
| 20260506152003 | 53 | 241 | 1.7 | 5.2 | 0.00 | 0.00 | 0.00 | 81 | 1019.1 |
| 20260506151903 | 53 | 230 | 1.7 | 5.2 | 0.00 | 0.00 | 0.00 | 81 | 1019.1 |
| 20260506151803 | 53 | 257 | 1.7 | 5.2 | 0.00 | 0.00 | 0.00 | 81 | 1019.0 |
| 20260506151702 | 53 | 232 | 1.7 | 5.2 | 0.00 | 0.00 | 0.00 | 81 | 1019.1 |
| 20260506151603 | 53 | 270 | 1.7 | 5.2 | 0.00 | 0.00 | 0.00 | 81 | 1019.0 |
| 20260506151503 | 53 | 271 | 1.7 | 5.2 | 0.00 | 0.00 | 0.00 | 81 | 1019.0 |
| 20260506151403 | 53 | 248 | 1.7 | 5.2 | 0.00 | 0.00 | 0.00 | 81 | 1019.0 |
| 20260506151303 | 53 | 286 | 2.6 | 5.2 | 0.00 | 0.00 | 0.00 | 81 | 1019.0 |
| 20260506151203 | 53 | 298 | 2.6 | 4.3 | 0.00 | 0.00 | 0.00 | 81 | 1019.0 |
| 20260506151102 | 53 | 273 | 2.6 | 4.3 | 0.00 | 0.00 | 0.00 | 81 | 1019.0 |
| 20260506151002 | 53 | 273 | 2.6 | 4.3 | 0.00 | 0.00 | 0.00 | 81 | 1019.0 |
| 20260506150902 | 53 | 292 | 1.7 | 4.3 | 0.00 | 0.00 | 0.00 | 81 | 1019.0 |
| 20260506150802 | 53 | 236 | 1.7 | 4.3 | 0.00 | 0.00 | 0.00 | 81 | 1019.0 |
| 20260506150703 | 53 | 264 | 1.7 | 4.3 | 0.00 | 0.00 | 0.00 | 81 | 1019.0 |
| 20260506150603 | 53 | 260 | 1.7 | 4.3 | 0.00 | 0.00 | 0.00 | 81 | 1019.0 |
| 20260506150458 | 53 | 215 | 1.7 | 6.1 | 0.00 | 0.00 | 0.00 | 81 | 1019.0 |
| 20260506150358 | 53 | 238 | 1.7 | 6.1 | 0.00 | 0.00 | 0.00 | 81 | 1019.0 |
| 20260506150303 | 53 | 242 | 1.7 | 6.1 | 0.00 | 0.00 | 0.00 | 81 | 1018.9 |
| 20260506150219 | 53 | 243 | 0.9 | 6.1 | 0.00 | 0.00 | 0.00 | 81 | 1019.0 |
| 20260506150058 | 53 | 250 | 0.9 | 6.1 | 0.00 | 0.00 | 0.00 | 81 | 1018.9 |
| 20260506145958 | 53 | 250 | 0.9 | 6.1 | 0.00 | 0.00 | 0.00 | 81 | 1018.9 |
| 20260506145858 | 53 | 250 | 0.9 | 6.1 | 0.00 | 0.00 | 0.00 | 81 | 1018.9 |
| 20260506145759 | 53 | 277 | 1.7 | 6.1 | 0.00 | 0.00 | 0.00 | 81 | 1018.8 |
| 20260506145658 | 53 | 28 | 1.7 | 6.1 | 0.00 | 0.00 | 0.00 | 81 | 1018.9 |
| 20260506145558 | 53 | 264 | 1.7 | 6.1 | 0.00 | 0.00 | 0.00 | 81 | 1018.9 |
| 20260506145459 | 53 | 272 | 1.7 | 6.1 | 0.00 | 0.00 | 0.00 | 81 | 1018.9 |
| 20260506145358 | 53 | 272 | 1.7 | 6.1 | 0.00 | 0.00 | 0.00 | 81 | 1018.9 |
| 20260506145258 | 53 | 272 | 1.7 | 6.1 | 0.00 | 0.00 | 0.00 | 81 | 1018.9 |
| 20260506145159 | 53 | 278 | 1.7 | 6.1 | 0.00 | 0.00 | 0.00 | 81 | 1018.9 |
| 20260506145058 | 53 | 261 | 1.7 | 6.1 | 0.00 | 0.00 | 0.00 | 81 | 1018.8 |
| 20260506144959 | 53 | 261 | 1.7 | 6.1 | 0.00 | 0.00 | 0.00 | 81 | 1018.8 |
| 20260506144859 | 53 | 261 | 1.7 | 6.1 | 0.00 | 0.00 | 0.00 | 81 | 1018.8 |
| 20260506144758 | 53 | 281 | 1.7 | 6.1 | 0.00 | 0.00 | 0.00 | 81 | 1018.8 |
| 20260506144659 | 53 | 253 | 0.9 | 6.1 | 0.00 | 0.00 | 0.00 | 81 | 1018.7 |
| 20260506144555 | 53 | 240 | 0.9 | 6.1 | 0.00 | 0.00 | 0.00 | 81 | 1018.7 |
| 20260506144454 | 53 | 254 | 0.9 | 4.3 | 0.00 | 0.00 | 0.00 | 81 | 1018.7 |
| 20260506144354 | 53 | 246 | 0.0 | 4.3 | 0.00 | 0.00 | 0.00 | 81 | 1018.7 |
| 20260506144255 | 53 | 269 | 0.0 | 6.1 | 0.00 | 0.00 | 0.00 | 81 | 1018.7 |
| 20260506144155 | 53 | 270 | 0.0 | 6.1 | 0.00 | 0.00 | 0.00 | 81 | 1018.7 |
| 20260506144055 | 53 | 270 | 0.0 | 6.1 | 0.00 | 0.00 | 0.00 | 81 | 1018.7 |
| 20260506143955 | 53 | 269 | 0.9 | 6.1 | 0.00 | 0.00 | 0.00 | 81 | 1018.7 |
| 20260506143855 | 53 | 269 | 0.9 | 6.1 | 0.00 | 0.00 | 0.00 | 81 | 1018.6 |
| 20260506143755 | 53 | 269 | 0.9 | 6.1 | 0.00 | 0.00 | 0.00 | 81 | 1018.6 |
| 20260506143655 | 53 | 269 | 0.9 | 6.1 | 0.00 | 0.00 | 0.00 | 81 | 1018.6 |
| 20260506143555 | 53 | 269 | 0.9 | 6.1 | 0.00 | 0.00 | 0.00 | 81 | 1018.5 |
| 20260506143455 | 53 | 269 | 0.9 | 6.1 | 0.00 | 0.00 | 0.00 | 81 | 1018.6 |
| 20260506143355 | 53 | 269 | 0.9 | 6.1 | 0.00 | 0.00 | 0.00 | 81 | 1018.5 |
| 20260506143254 | 53 | 270 | 0.9 | 7.8 | 0.00 | 0.00 | 0.00 | 81 | 1018.6 |
| 20260506143155 | 53 | 269 | 0.9 | 7.8 | 0.00 | 0.00 | 0.00 | 81 | 1018.6 |
| 20260506143054 | 53 | 270 | 0.9 | 7.8 | 0.00 | 0.00 | 0.00 | 81 | 1018.6 |
| 20260506142955 | 53 | 270 | 0.9 | 7.8 | 0.00 | 0.00 | 0.00 | 81 | 1018.5 |
| 20260506142855 | 53 | 250 | 0.9 | 7.8 | 0.00 | 0.00 | 0.00 | 81 | 1018.5 |
| 20260506142755 | 53 | 246 | 0.9 | 7.8 | 0.00 | 0.00 | 0.00 | 81 | 1018.4 |
| 20260506142652 | 53 | 246 | 0.9 | 7.8 | 0.00 | 0.00 | 0.00 | 81 | 1018.5 |
| 20260506142552 | 53 | 246 | 0.9 | 7.8 | 0.00 | 0.00 | 0.00 | 81 | 1018.5 |
| 20260506142451 | 53 | 271 | 0.9 | 7.8 | 0.00 | 0.00 | 0.00 | 81 | 1018.5 |
| 20260506142349 | 53 | 239 | 0.9 | 7.8 | 0.00 | 0.00 | 0.00 | 81 | 1018.5 |
| 20260506142249 | 53 | 245 | 0.9 | 3.5 | 0.00 | 0.00 | 0.00 | 81 | 1018.5 |
| 20260506142148 | 53 | 245 | 0.9 | 3.5 | 0.00 | 0.00 | 0.00 | 81 | 1018.5 |
| 20260506142046 | 53 | 245 | 0.9 | 3.5 | 0.00 | 0.00 | 0.00 | 81 | 1018.4 |
| 20260506141946 | 53 | 245 | 0.0 | 3.5 | 0.00 | 0.00 | 0.00 | 81 | 1018.4 |
| 20260506141845 | 53 | 245 | 0.0 | 3.5 | 0.00 | 0.00 | 0.00 | 81 | 1018.3 |
| 20260506141741 | 53 | 245 | 0.0 | 3.5 | 0.00 | 0.00 | 0.00 | 81 | 1018.3 |
| 20260506141640 | 53 | 245 | 0.0 | 3.5 | 0.00 | 0.00 | 0.00 | 81 | 1018.3 |
| 20260506141540 | 53 | 245 | 0.9 | 3.5 | 0.00 | 0.00 | 0.00 | 81 | 1018.4 |
| 20260506141440 | 53 | 245 | 0.9 | 3.5 | 0.00 | 0.00 | 0.00 | 81 | 1018.3 |
| 20260506141338 | 53 | 245 | 0.9 | 3.5 | 0.00 | 0.00 | 0.00 | 81 | 1018.3 |
| 20260506141235 | 53 | 245 | 0.9 | 3.5 | 0.00 | 0.00 | 0.00 | 81 | 1018.4 |
| 20260506141132 | 53 | 245 | 0.9 | 3.5 | 0.00 | 0.00 | 0.00 | 81 | 1018.4 |
| 20260506141030 | 53 | 245 | 0.9 | 3.5 | 0.00 | 0.00 | 0.00 | 81 | 1018.4 |
| 20260506140930 | 53 | 245 | 0.9 | 3.5 | 0.00 | 0.00 | 0.00 | 81 | 1018.4 |
| 20260506140830 | 53 | 245 | 0.9 | 5.2 | 0.00 | 0.00 | 0.00 | 81 | 1018.4 |
| 20260506140730 | 53 | 245 | 0.9 | 5.2 | 0.00 | 0.00 | 0.00 | 81 | 1018.4 |
| 20260506140630 | 53 | 245 | 0.9 | 5.2 | 0.00 | 0.00 | 0.00 | 81 | 1018.5 |
| 20260506140529 | 53 | 245 | 0.9 | 5.2 | 0.00 | 0.00 | 0.00 | 81 | 1018.5 |
| 20260506140429 | 53 | 251 | 0.9 | 5.2 | 0.00 | 0.00 | 0.00 | 81 | 1018.5 |
| 20260506140327 | 53 | 251 | 0.9 | 5.2 | 0.00 | 0.00 | 0.00 | 81 | 1018.4 |
| 20260506140223 | 53 | 208 | 0.9 | 5.2 | 0.00 | 0.00 | 0.00 | 81 | 1018.4 |
| 20260506140124 | 53 | 208 | 0.9 | 5.2 | 0.00 | 0.00 | 0.00 | 81 | 1018.4 |
| 20260506140022 | 53 | 208 | 0.9 | 5.2 | 0.00 | 0.00 | 0.00 | 81 | 1018.4 |
| 20260506135920 | 53 | 208 | 1.7 | 5.2 | 0.00 | 0.00 | 0.00 | 81 | 1018.4 |
| 20260506135820 | 53 | 249 | 1.7 | 5.2 | 0.00 | 0.00 | 0.00 | 81 | 1018.4 |
| 20260506135718 | 53 | 249 | 1.7 | 5.2 | 0.00 | 0.00 | 0.00 | 81 | 1018.4 |
| 20260506135613 | 53 | 249 | 1.7 | 5.2 | 0.00 | 0.00 | 0.00 | 81 | 1018.3 |
| 20260506135512 | 53 | 249 | 1.7 | 5.2 | 0.00 | 0.00 | 0.00 | 81 | 1018.4 |
| 20260506135412 | 53 | 249 | 1.7 | 6.1 | 0.00 | 0.00 | 0.00 | 81 | 1018.3 |
| 20260506135312 | 53 | 245 | 1.7 | 6.1 | 0.00 | 0.00 | 0.00 | 81 | 1018.3 |
| 20260506135212 | 53 | 270 | 1.7 | 6.1 | 0.00 | 0.00 | 0.00 | 81 | 1018.4 |
| 20260506135108 | 53 | 270 | 1.7 | 6.1 | 0.00 | 0.00 | 0.00 | 81 | 1018.4 |
| 20260506135008 | 53 | 256 | 1.7 | 6.1 | 0.00 | 0.00 | 0.00 | 81 | 1018.4 |
| 20260506134908 | 53 | 257 | 1.7 | 6.1 | 0.00 | 0.00 | 0.00 | 81 | 1018.3 |
| 20260506134809 | 53 | 259 | 1.7 | 6.1 | 0.00 | 0.00 | 0.00 | 81 | 1018.3 |
| 20260506134706 | 53 | 259 | 1.7 | 6.1 | 0.00 | 0.00 | 0.00 | 81 | 1018.3 |
| 20260506134602 | 53 | 259 | 1.7 | 6.1 | 0.00 | 0.00 | 0.00 | 81 | 1018.2 |
| 20260506134502 | 53 | 265 | 1.7 | 6.1 | 0.00 | 0.00 | 0.00 | 81 | 1018.3 |
| 20260506134402 | 53 | 241 | 2.6 | 6.1 | 0.00 | 0.00 | 0.00 | 81 | 1018.2 |
| 20260506134302 | 53 | 241 | 2.6 | 6.1 | 0.00 | 0.00 | 0.00 | 81 | 1018.2 |
| 20260506134202 | 53 | 241 | 2.6 | 6.1 | 0.00 | 0.00 | 0.00 | 81 | 1018.3 |
| 20260506134100 | 53 | 250 | 2.6 | 6.1 | 0.00 | 0.00 | 0.00 | 81 | 1018.2 |
| 20260506133958 | 53 | 245 | 2.6 | 6.1 | 0.00 | 0.00 | 0.00 | 81 | 1018.2 |
| 20260506133856 | 53 | 245 | 2.6 | 6.1 | 0.00 | 0.00 | 0.00 | 81 | 1018.1 |
| 20260506133756 | 53 | 244 | 2.6 | 6.1 | 0.00 | 0.00 | 0.00 | 81 | 1018.2 |
| 20260506133653 | 53 | 254 | 2.6 | 6.1 | 0.00 | 0.00 | 0.00 | 81 | 1018.2 |
| 20260506133547 | 53 | 251 | 1.7 | 6.1 | 0.00 | 0.00 | 0.00 | 81 | 1018.2 |
| 20260506133447 | 53 | 264 | 1.7 | 6.1 | 0.00 | 0.00 | 0.00 | 81 | 1018.1 |
| 20260506133344 | 53 | 275 | 1.7 | 6.1 | 0.00 | 0.00 | 0.00 | 81 | 1018.1 |
| 20260506133244 | 53 | 252 | 0.9 | 6.1 | 0.00 | 0.00 | 0.00 | 81 | 1018.0 |
| 20260506133143 | 53 | 244 | 0.9 | 6.1 | 0.00 | 0.00 | 0.00 | 81 | 1017.9 |
| 20260506133040 | 53 | 267 | 0.9 | 6.1 | 0.00 | 0.00 | 0.00 | 81 | 1017.9 |
| 20260506132938 | 53 | 267 | 0.9 | 6.1 | 0.00 | 0.00 | 0.00 | 81 | 1018.0 |
| 20260506132838 | 53 | 267 | 0.9 | 6.1 | 0.00 | 0.00 | 0.00 | 81 | 1018.0 |
| 20260506132738 | 53 | 253 | 0.0 | 6.1 | 0.00 | 0.00 | 0.00 | 81 | 1018.0 |
| 20260506132638 | 53 | 266 | 0.0 | 1.7 | 0.00 | 0.00 | 0.00 | 81 | 1017.9 |
| 20260506132432 | 53 | 266 | 0.9 | 3.5 | 0.00 | 0.00 | 0.00 | 81 | 1017.8 |
| 20260506132332 | 53 | 266 | 0.9 | 3.5 | 0.00 | 0.00 | 0.00 | 81 | 1017.9 |
| 20260506132232 | 53 | 266 | 0.9 | 3.5 | 0.00 | 0.00 | 0.00 | 81 | 1018.0 |
| 20260506132142 | 53 | 266 | 0.9 | 3.5 | 0.00 | 0.00 | 0.00 | 81 | 1018.0 |
| 20260506132132 | 53 | 266 | 0.9 | 3.5 | 0.00 | 0.00 | 0.00 | 81 | 1018.0 |
| 20260506131927 | 53 | 266 | 0.9 | 3.5 | 0.00 | 0.00 | 0.00 | 81 | 1018.0 |
| 20260506131827 | 53 | 266 | 0.9 | 3.5 | 0.00 | 0.00 | 0.00 | 81 | 1018.0 |
| 20260506131726 | 53 | 266 | 0.9 | 3.5 | 0.00 | 0.00 | 0.00 | 81 | 1018.0 |
| 20260506131626 | 53 | 266 | 0.0 | 3.5 | 0.00 | 0.00 | 0.00 | 81 | 1018.0 |
| 20260506131526 | 53 | 254 | 0.0 | 2.6 | 0.00 | 0.00 | 0.00 | 81 | 1018.0 |
| 20260506131424 | 53 | 254 | 0.0 | 2.6 | 0.00 | 0.00 | 0.00 | 81 | 1018.0 |
| 20260506131324 | 53 | 254 | 0.0 | 0.0 | 0.00 | 0.00 | 0.00 | 81 | 1018.0 |
| 20260506131222 | 53 | 254 | 0.0 | 0.0 | 0.00 | 0.00 | 0.00 | 81 | 1017.9 |
| 20260506131120 | 53 | 254 | 0.0 | 0.9 | 0.00 | 0.00 | 0.00 | 81 | 1017.9 |
| 20260506131021 | 53 | 254 | 0.0 | 0.9 | 0.00 | 0.00 | 0.00 | 81 | 1017.8 |
| 20260506130919 | 53 | 254 | 0.0 | 0.9 | 0.00 | 0.00 | 0.00 | 81 | 1017.8 |
| 20260506130818 | 53 | 254 | 0.0 | 0.9 | 0.00 | 0.00 | 0.00 | 81 | 1017.8 |
| 20260506130716 | 53 | 254 | 0.0 | 0.9 | 0.00 | 0.00 | 0.00 | 81 | 1017.8 |
| 20260506130631 | 53 | 254 | 0.0 | 0.9 | 0.00 | 0.00 | 0.00 | 81 | 1017.8 |
| 20260506130514 | 53 | 254 | 0.0 | 0.9 | 0.00 | 0.00 | 0.00 | 81 | 1017.8 |
| 20260506130412 | 53 | 254 | 0.0 | 0.9 | 0.00 | 0.00 | 0.00 | 81 | 1017.8 |
| 20260506130312 | 53 | 254 | 0.0 | 0.9 | 0.00 | 0.00 | 0.00 | 81 | 1017.8 |
| 20260506130211 | 53 | 254 | 0.0 | 1.7 | 0.00 | 0.00 | 0.00 | 81 | 1017.8 |
| 20260506130133 | 53 | 254 | 0.0 | 2.6 | 0.00 | 0.00 | 0.00 | 81 | 1017.7 |
| 20260506130005 | 53 | 254 | 0.0 | 2.6 | 0.00 | 0.00 | 0.00 | 81 | 1017.7 |
| 20260506125903 | 53 | 254 | 0.0 | 2.6 | 0.00 | 0.00 | 0.00 | 81 | 1017.8 |
| 20260506125805 | 53 | 254 | 0.0 | 2.6 | 0.00 | 0.00 | 0.00 | 81 | 1017.8 |
| 20260506125704 | 53 | 254 | 0.0 | 2.6 | 0.00 | 0.00 | 0.00 | 81 | 1017.8 |
| 20260506125605 | 53 | 254 | 0.0 | 2.6 | 0.00 | 0.00 | 0.00 | 81 | 1017.7 |
| 20260506125504 | 53 | 254 | 0.0 | 2.6 | 0.00 | 0.00 | 0.00 | 81 | 1017.8 |
| 20260506125404 | 53 | 254 | 0.9 | 2.6 | 0.00 | 0.00 | 0.00 | 81 | 1017.8 |
| 20260506125300 | 53 | 254 | 0.9 | 6.1 | 0.00 | 0.00 | 0.00 | 81 | 1017.8 |
| 20260506125158 | 53 | 254 | 0.9 | 6.1 | 0.00 | 0.00 | 0.00 | 81 | 1017.8 |
| 20260506125056 | 53 | 254 | 0.9 | 6.1 | 0.00 | 0.00 | 0.00 | 81 | 1017.7 |
| 20260506124956 | 53 | 254 | 0.9 | 6.1 | 0.00 | 0.00 | 0.00 | 81 | 1017.7 |
| 20260506124854 | 53 | 254 | 1.7 | 6.1 | 0.00 | 0.00 | 0.00 | 81 | 1017.8 |
| 20260506124753 | 53 | 254 | 1.7 | 6.1 | 0.00 | 0.00 | 0.00 | 81 | 1017.8 |
| 20260506124653 | 53 | 254 | 1.7 | 6.1 | 0.00 | 0.00 | 0.00 | 81 | 1017.8 |
| 20260506124549 | 53 | 254 | 1.7 | 6.1 | 0.00 | 0.00 | 0.00 | 81 | 1017.9 |
| 20260506124444 | 53 | 254 | 1.7 | 6.1 | 0.00 | 0.00 | 0.00 | 81 | 1017.8 |
| 20260506124344 | 53 | 252 | 1.7 | 6.1 | 0.00 | 0.00 | 0.00 | 81 | 1017.8 |
| 20260506124244 | 53 | 269 | 1.7 | 6.1 | 0.00 | 0.00 | 0.00 | 81 | 1017.8 |
| 20260506124144 | 53 | 269 | 1.7 | 6.1 | 0.00 | 0.00 | 0.00 | 81 | 1017.8 |
| 20260506124120 | 53 | 236 | 1.7 | 6.1 | 0.00 | 0.00 | 0.00 | 81 | 1017.9 |
| 20260506123944 | 53 | 236 | 1.7 | 6.1 | 0.00 | 0.00 | 0.00 | 81 | 1017.9 |
| 20260506123843 | 53 | 236 | 1.7 | 6.1 | 0.00 | 0.00 | 0.00 | 81 | 1017.9 |
| 20260506123743 | 53 | 219 | 1.7 | 6.1 | 0.00 | 0.00 | 0.00 | 81 | 1017.8 |
| 20260506123641 | 53 | 226 | 1.7 | 6.1 | 0.00 | 0.00 | 0.00 | 81 | 1017.8 |
| 20260506123619 | 53 | 224 | 1.7 | 6.1 | 0.00 | 0.00 | 0.00 | 81 | 1017.8 |
| 20260506123432 | 53 | 207 | 1.7 | 6.1 | 0.00 | 0.00 | 0.00 | 81 | 1017.9 |
| 20260506123332 | 53 | 227 | 0.9 | 4.3 | 0.00 | 0.00 | 0.00 | 81 | 1017.9 |
| 20260506123232 | 53 | 229 | 0.9 | 3.5 | 0.00 | 0.00 | 0.00 | 81 | 1017.9 |
| 20260506123132 | 53 | 240 | 0.9 | 2.6 | 0.00 | 0.00 | 0.00 | 81 | 1017.9 |
| 20260506123031 | 53 | 240 | 0.9 | 2.6 | 0.00 | 0.00 | 0.00 | 81 | 1017.9 |
| 20260506122928 | 53 | 240 | 1.7 | 2.6 | 0.00 | 0.00 | 0.00 | 81 | 1017.9 |
| 20260506122826 | 53 | 240 | 1.7 | 2.6 | 0.00 | 0.00 | 0.00 | 81 | 1017.8 |
| 20260506122726 | 53 | 240 | 1.7 | 2.6 | 0.00 | 0.00 | 0.00 | 81 | 1017.8 |
| 20260506122626 | 53 | 240 | 0.9 | 2.6 | 0.00 | 0.00 | 0.00 | 81 | 1017.9 |
| 20260506122525 | 53 | 240 | 0.9 | 2.6 | 0.00 | 0.00 | 0.00 | 81 | 1017.9 |
| 20260506122420 | 53 | 240 | 0.9 | 2.6 | 0.00 | 0.00 | 0.00 | 81 | 1017.9 |
| 20260506122320 | 53 | 240 | 0.9 | 2.6 | 0.00 | 0.00 | 0.00 | 81 | 1017.9 |
| 20260506122220 | 53 | 240 | 0.9 | 2.6 | 0.00 | 0.00 | 0.00 | 81 | 1017.8 |
| 20260506122120 | 53 | 240 | 0.9 | 2.6 | 0.00 | 0.00 | 0.00 | 81 | 1017.8 |
| 20260506122019 | 53 | 281 | 0.9 | 2.6 | 0.00 | 0.00 | 0.00 | 81 | 1017.7 |
| 20260506121916 | 53 | 281 | 1.7 | 3.5 | 0.00 | 0.00 | 0.00 | 81 | 1017.7 |
| 20260506121814 | 53 | 281 | 1.7 | 3.5 | 0.00 | 0.00 | 0.00 | 81 | 1017.8 |
| 20260506121715 | 53 | 281 | 1.7 | 3.5 | 0.00 | 0.00 | 0.00 | 81 | 1017.8 |
| 20260506121615 | 53 | 281 | 1.7 | 3.5 | 0.00 | 0.00 | 0.00 | 81 | 1017.8 |
| 20260506121404 | 53 | 269 | 1.7 | 6.1 | 0.00 | 0.00 | 0.00 | 81 | 1017.8 |
| 20260506121304 | 53 | 263 | 1.7 | 6.1 | 0.00 | 0.00 | 0.00 | 81 | 1017.8 |
| 20260506121203 | 53 | 263 | 1.7 | 6.1 | 0.00 | 0.00 | 0.00 | 81 | 1017.7 |
| 20260506121118 | 53 | 266 | 1.7 | 6.1 | 0.00 | 0.00 | 0.00 | 81 | 1017.7 |
| 20260506121108 | 53 | 236 | 1.7 | 6.1 | 0.00 | 0.00 | 0.00 | 81 | 1017.7 |
| 20260506120902 | 53 | 232 | 1.7 | 6.1 | 0.00 | 0.00 | 0.00 | 81 | 1017.8 |
| 20260506120802 | 53 | 232 | 2.6 | 6.1 | 0.00 | 0.00 | 0.00 | 81 | 1017.8 |
| 20260506120700 | 53 | 246 | 2.6 | 6.1 | 0.00 | 0.00 | 0.00 | 81 | 1017.8 |
| 20260506120600 | 53 | 246 | 2.6 | 6.1 | 0.00 | 0.00 | 0.00 | 81 | 1017.8 |
| 20260506120358 | 53 | 265 | 2.6 | 7.0 | 0.00 | 0.00 | 0.00 | 81 | 1017.9 |
| 20260506120256 | 53 | 258 | 2.6 | 7.0 | 0.00 | 0.00 | 0.00 | 81 | 1017.9 |
| 20260506120106 | 53 | 270 | 3.5 | 7.0 | 0.00 | 0.00 | 0.00 | 81 | 1017.9 |
| 20260506120056 | 53 | 245 | 3.5 | 7.0 | 0.00 | 0.00 | 0.00 | 81 | 1017.9 |
| 20260506115846 | 53 | 245 | 3.5 | 7.0 | 0.00 | 0.00 | 0.00 | 81 | 1017.8 |
| 20260506115746 | 53 | 257 | 3.5 | 7.0 | 0.00 | 0.00 | 0.00 | 81 | 1017.8 |
| 20260506115646 | 53 | 246 | 3.5 | 7.0 | 0.00 | 0.00 | 0.00 | 81 | 1017.8 |
| 20260506115546 | 53 | 222 | 2.6 | 7.0 | 0.00 | 0.00 | 0.00 | 81 | 1017.8 |
| 20260506115346 | 53 | 256 | 3.5 | 6.1 | 0.00 | 0.00 | 0.00 | 81 | 1017.8 |
| 20260506115243 | 53 | 248 | 2.6 | 6.1 | 0.00 | 0.00 | 0.00 | 81 | 1017.7 |
| 20260506115145 | 53 | 232 | 2.6 | 6.1 | 0.00 | 0.00 | 0.00 | 81 | 1017.7 |
| 20260506115042 | 53 | 257 | 2.6 | 6.1 | 0.00 | 0.00 | 0.00 | 81 | 1017.6 |
| 20260506114838 | 53 | 268 | 2.6 | 6.1 | 0.00 | 0.00 | 0.00 | 81 | 1017.6 |
| 20260506114738 | 53 | 279 | 2.6 | 6.1 | 0.00 | 0.00 | 0.00 | 81 | 1017.5 |
| 20260506114638 | 53 | 256 | 2.6 | 6.1 | 0.00 | 0.00 | 0.00 | 81 | 1017.5 |
| 20260506114536 | 53 | 256 | 2.6 | 6.1 | 0.00 | 0.00 | 0.00 | 81 | 1017.5 |
| 20260506114328 | 53 | 231 | 2.6 | 5.2 | 0.00 | 0.00 | 0.00 | 81 | 1017.6 |
| 20260506114228 | 53 | 259 | 2.6 | 5.2 | 0.00 | 0.00 | 0.00 | 81 | 1017.5 |
| 20260506114128 | 53 | 259 | 2.6 | 5.2 | 0.00 | 0.00 | 0.00 | 81 | 1017.5 |
| 20260506114028 | 53 | 232 | 2.6 | 5.2 | 0.00 | 0.00 | 0.00 | 81 | 1017.4 |
| 20260506113822 | 53 | 263 | 1.7 | 6.1 | 0.00 | 0.00 | 0.00 | 81 | 1017.4 |
| 20260506113722 | 53 | 263 | 1.7 | 6.1 | 0.00 | 0.00 | 0.00 | 81 | 1017.4 |
| 20260506113622 | 53 | 247 | 1.7 | 6.1 | 0.00 | 0.00 | 0.00 | 81 | 1017.4 |
| 20260506113522 | 53 | 275 | 1.7 | 6.1 | 0.00 | 0.00 | 0.00 | 81 | 1017.4 |
| 20260506113318 | 53 | 250 | 1.7 | 6.1 | 0.00 | 0.00 | 0.00 | 81 | 1017.4 |
| 20260506113218 | 53 | 265 | 1.7 | 6.1 | 0.00 | 0.00 | 0.00 | 81 | 1017.4 |
| 20260506113117 | 53 | 255 | 1.7 | 6.1 | 0.00 | 0.00 | 0.00 | 81 | 1017.4 |
| 20260506113018 | 53 | 231 | 1.7 | 6.1 | 0.00 | 0.00 | 0.00 | 81 | 1017.4 |
| 20260506112812 | 53 | 247 | 2.6 | 6.1 | 0.00 | 0.00 | 0.00 | 81 | 1017.6 |
| 20260506112710 | 53 | 247 | 2.6 | 6.1 | 0.00 | 0.00 | 0.00 | 81 | 1017.6 |
| 20260506112610 | 53 | 248 | 2.6 | 6.1 | 0.00 | 0.00 | 0.00 | 81 | 1017.6 |
| 20260506112510 | 53 | 245 | 2.6 | 6.1 | 0.00 | 0.00 | 0.00 | 81 | 1017.6 |
| 20260506112306 | 53 | 269 | 2.6 | 6.1 | 0.00 | 0.00 | 0.00 | 81 | 1017.6 |
| 20260506112204 | 53 | 262 | 1.7 | 6.1 | 0.00 | 0.00 | 0.00 | 81 | 1017.6 |
| 20260506112103 | 53 | 292 | 1.7 | 6.1 | 0.00 | 0.00 | 0.00 | 81 | 1017.6 |
| 20260506112004 | 53 | 260 | 1.7 | 6.1 | 0.00 | 0.00 | 0.00 | 81 | 1017.6 |
| 20260506111758 | 53 | 269 | 1.7 | 5.2 | 0.00 | 0.00 | 0.00 | 81 | 1017.6 |
| 20260506111658 | 53 | 232 | 1.7 | 5.2 | 0.00 | 0.00 | 0.00 | 81 | 1017.6 |
| 20260506111558 | 53 | 247 | 1.7 | 5.2 | 0.00 | 0.00 | 0.00 | 81 | 1017.6 |
| 20260506111458 | 53 | 242 | 1.7 | 5.2 | 0.00 | 0.00 | 0.00 | 81 | 1017.6 |
| 20260506111254 | 53 | 263 | 2.6 | 6.1 | 0.00 | 0.00 | 0.00 | 81 | 1017.6 |
| 20260506111152 | 53 | 263 | 2.6 | 6.1 | 0.00 | 0.00 | 0.00 | 81 | 1017.5 |
| 20260506111052 | 53 | 5 | 2.6 | 6.1 | 0.00 | 0.00 | 0.00 | 81 | 1017.6 |
| 20260506110952 | 53 | 271 | 2.6 | 6.1 | 0.00 | 0.00 | 0.00 | 81 | 1017.6 |
| 20260506110747 | 53 | 269 | 2.6 | 6.1 | 0.00 | 0.00 | 0.00 | 81 | 1017.6 |
| 20260506110647 | 53 | 269 | 2.6 | 6.1 | 0.00 | 0.00 | 0.00 | 81 | 1017.6 |
| 20260506110546 | 53 | 267 | 1.7 | 6.1 | 0.00 | 0.00 | 0.00 | 81 | 1017.6 |
| 20260506110446 | 53 | 270 | 1.7 | 6.1 | 0.00 | 0.00 | 0.00 | 81 | 1017.5 |
| 20260506110240 | 53 | 253 | 1.7 | 5.2 | 0.00 | 0.00 | 0.00 | 82 | 1017.5 |
| 20260506110140 | 53 | 257 | 1.7 | 5.2 | 0.00 | 0.00 | 0.00 | 82 | 1017.5 |
| 20260506110040 | 53 | 247 | 1.7 | 5.2 | 0.00 | 0.00 | 0.00 | 82 | 1017.5 |
| 20260506105940 | 53 | 247 | 1.7 | 5.2 | 0.00 | 0.00 | 0.00 | 82 | 1017.5 |
| 20260506105733 | 53 | 247 | 1.7 | 5.2 | 0.00 | 0.00 | 0.00 | 82 | 1017.6 |
| 20260506105633 | 53 | 280 | 1.7 | 6.1 | 0.00 | 0.00 | 0.00 | 82 | 1017.6 |
| 20260506105533 | 53 | 263 | 1.7 | 6.1 | 0.00 | 0.00 | 0.00 | 82 | 1017.5 |
| 20260506105434 | 53 | 263 | 1.7 | 6.1 | 0.00 | 0.00 | 0.00 | 82 | 1017.6 |
| 20260506105235 | 53 | 293 | 1.7 | 6.1 | 0.00 | 0.00 | 0.00 | 82 | 1017.5 |
| 20260506105132 | 53 | 293 | 1.7 | 6.1 | 0.00 | 0.00 | 0.00 | 82 | 1017.5 |
| 20260506105031 | 53 | 293 | 2.6 | 6.1 | 0.00 | 0.00 | 0.00 | 82 | 1017.5 |
| 20260506104930 | 53 | 293 | 2.6 | 6.1 | 0.00 | 0.00 | 0.00 | 82 | 1017.5 |
| 20260506104726 | 53 | 272 | 2.6 | 6.1 | 0.00 | 0.00 | 0.00 | 82 | 1017.5 |
| 20260506104626 | 53 | 267 | 2.6 | 6.1 | 0.00 | 0.00 | 0.00 | 82 | 1017.5 |
| 20260506104530 | 53 | 222 | 2.6 | 6.1 | 0.00 | 0.00 | 0.00 | 82 | 1017.5 |
| 20260506104424 | 53 | 222 | 2.6 | 6.1 | 0.00 | 0.00 | 0.00 | 82 | 1017.4 |
| 20260506104216 | 53 | 281 | 2.6 | 6.1 | 0.00 | 0.00 | 0.00 | 82 | 1017.5 |
| 20260506104116 | 53 | 242 | 2.6 | 6.1 | 0.00 | 0.00 | 0.00 | 82 | 1017.5 |
| 20260506104016 | 53 | 282 | 2.6 | 6.1 | 0.00 | 0.00 | 0.00 | 82 | 1017.4 |
| 20260506103930 | 53 | 258 | 2.6 | 4.3 | 0.00 | 0.00 | 0.00 | 82 | 1017.5 |
| 20260506103920 | 53 | 259 | 2.6 | 4.3 | 0.00 | 0.00 | 0.00 | 82 | 1017.4 |
| 20260506103710 | 53 | 229 | 2.6 | 5.2 | 0.00 | 0.00 | 0.00 | 82 | 1017.4 |
| 20260506103610 | 53 | 243 | 2.6 | 5.2 | 0.00 | 0.00 | 0.00 | 82 | 1017.4 |
| 20260506103511 | 53 | 258 | 1.7 | 5.2 | 0.00 | 0.00 | 0.00 | 82 | 1017.4 |
| 20260506103410 | 53 | 257 | 1.7 | 5.2 | 0.00 | 0.00 | 0.00 | 82 | 1017.3 |
| 20260506103205 | 53 | 256 | 1.7 | 5.2 | 0.00 | 0.00 | 0.00 | 82 | 1017.3 |
| 20260506103103 | 53 | 226 | 1.7 | 5.2 | 0.00 | 0.00 | 0.00 | 82 | 1017.4 |
| 20260506103004 | 53 | 238 | 1.7 | 5.2 | 0.00 | 0.00 | 0.00 | 82 | 1017.3 |
| 20260506102904 | 53 | 239 | 1.7 | 5.2 | 0.00 | 0.00 | 0.00 | 82 | 1017.3 |
| 20260506102700 | 53 | 261 | 0.9 | 3.5 | 0.00 | 0.00 | 0.00 | 82 | 1017.3 |
| 20260506102558 | 53 | 261 | 0.9 | 3.5 | 0.00 | 0.00 | 0.00 | 82 | 1017.3 |
| 20260506102458 | 53 | 261 | 0.9 | 3.5 | 0.00 | 0.00 | 0.00 | 82 | 1017.2 |
| 20260506102358 | 53 | 248 | 0.9 | 3.5 | 0.00 | 0.00 | 0.00 | 82 | 1017.2 |
| 20260506102158 | 53 | 248 | 0.9 | 3.5 | 0.00 | 0.00 | 0.00 | 82 | 1017.3 |
| 20260506102056 | 53 | 248 | 0.9 | 3.5 | 0.00 | 0.00 | 0.00 | 82 | 1017.2 |
| 20260506101956 | 53 | 248 | 0.9 | 3.5 | 0.00 | 0.00 | 0.00 | 82 | 1017.2 |
| 20260506101854 | 53 | 248 | 0.9 | 3.5 | 0.00 | 0.00 | 0.00 | 82 | 1017.2 |
| 20260506101652 | 53 | 248 | 1.7 | 3.5 | 0.00 | 0.00 | 0.00 | 82 | 1017.2 |
| 20260506101550 | 53 | 248 | 1.7 | 3.5 | 0.00 | 0.00 | 0.00 | 82 | 1017.2 |
| 20260506101450 | 53 | 248 | 1.7 | 3.5 | 0.00 | 0.00 | 0.00 | 82 | 1017.3 |
| 20260506101348 | 53 | 248 | 1.7 | 4.3 | 0.00 | 0.00 | 0.00 | 82 | 1017.2 |
| 20260506101142 | 53 | 248 | 1.7 | 4.3 | 0.00 | 0.00 | 0.00 | 82 | 1017.1 |
| 20260506101040 | 53 | 248 | 1.7 | 4.3 | 0.00 | 0.00 | 0.00 | 82 | 1017.1 |
| 20260506100940 | 53 | 250 | 1.7 | 4.3 | 0.00 | 0.00 | 0.00 | 82 | 1017.1 |
| 20260506100854 | 53 | 245 | 1.7 | 4.3 | 0.00 | 0.00 | 0.00 | 82 | 1017.1 |
| 20260506100844 | 53 | 292 | 1.7 | 4.3 | 0.00 | 0.00 | 0.00 | 82 | 1017.1 |
| 20260506100636 | 53 | 261 | 1.7 | 4.3 | 0.00 | 0.00 | 0.00 | 83 | 1017.1 |
| 20260506100536 | 53 | 271 | 1.7 | 4.3 | 0.00 | 0.00 | 0.00 | 82 | 1017.1 |
| 20260506100436 | 53 | 257 | 1.7 | 4.3 | 0.00 | 0.00 | 0.00 | 83 | 1017.1 |
| 20260506100336 | 53 | 261 | 1.7 | 3.5 | 0.00 | 0.00 | 0.00 | 82 | 1017.1 |
| 20260506100134 | 53 | 261 | 1.7 | 3.5 | 0.00 | 0.00 | 0.00 | 83 | 1017.1 |
| 20260506100032 | 53 | 277 | 1.7 | 3.5 | 0.00 | 0.00 | 0.00 | 83 | 1017.1 |
| 20260506095930 | 53 | 248 | 1.7 | 3.5 | 0.00 | 0.00 | 0.00 | 83 | 1017.1 |
| 20260506095830 | 53 | 274 | 1.7 | 3.5 | 0.00 | 0.00 | 0.00 | 83 | 1017.0 |
| 20260506095623 | 53 | 269 | 0.9 | 3.5 | 0.00 | 0.00 | 0.00 | 83 | 1017.0 |
| 20260506095522 | 53 | 260 | 0.9 | 3.5 | 0.00 | 0.00 | 0.00 | 83 | 1017.1 |
| 20260506095422 | 53 | 255 | 0.9 | 3.5 | 0.00 | 0.00 | 0.00 | 83 | 1017.1 |
| 20260506095322 | 53 | 274 | 0.9 | 2.6 | 0.00 | 0.00 | 0.00 | 83 | 1017.1 |
| 20260506095122 | 53 | 291 | 0.9 | 2.6 | 0.00 | 0.00 | 0.00 | 83 | 1017.1 |
| 20260506095020 | 53 | 291 | 0.9 | 2.6 | 0.00 | 0.00 | 0.00 | 83 | 1017.1 |
| 20260506094920 | 53 | 291 | 1.7 | 3.5 | 0.00 | 0.00 | 0.00 | 83 | 1017.1 |
| 20260506094818 | 53 | 291 | 1.7 | 3.5 | 0.00 | 0.00 | 0.00 | 83 | 1017.1 |
| 20260506094609 | 53 | 273 | 1.7 | 3.5 | 0.00 | 0.00 | 0.00 | 83 | 1017.1 |
| 20260506094509 | 53 | 283 | 1.7 | 3.5 | 0.00 | 0.00 | 0.00 | 83 | 1017.2 |
| 20260506094410 | 53 | 261 | 1.7 | 4.3 | 0.00 | 0.00 | 0.00 | 83 | 1017.1 |
| 20260506094323 | 53 | 261 | 1.7 | 4.3 | 0.00 | 0.00 | 0.00 | 83 | 1017.1 |
| 20260506094313 | 53 | 261 | 1.7 | 4.3 | 0.00 | 0.00 | 0.00 | 83 | 1017.2 |
| 20260506094106 | 53 | 261 | 1.7 | 6.1 | 0.00 | 0.00 | 0.00 | 83 | 1017.2 |
| 20260506094004 | 53 | 266 | 1.7 | 6.1 | 0.00 | 0.00 | 0.00 | 83 | 1017.2 |
| 20260506093904 | 53 | 241 | 2.6 | 6.1 | 0.00 | 0.00 | 0.00 | 83 | 1017.2 |
| 20260506093804 | 53 | 243 | 2.6 | 7.0 | 0.00 | 0.00 | 0.00 | 83 | 1017.2 |
| 20260506093602 | 53 | 275 | 2.6 | 7.0 | 0.00 | 0.00 | 0.00 | 83 | 1017.1 |
| 20260506093502 | 53 | 265 | 2.6 | 7.0 | 0.00 | 0.00 | 0.00 | 83 | 1017.2 |
| 20260506093402 | 53 | 269 | 2.6 | 7.0 | 0.00 | 0.00 | 0.00 | 83 | 1017.1 |
| 20260506093312 | 53 | 269 | 2.6 | 7.0 | 0.00 | 0.00 | 0.00 | 83 | 1017.1 |
| 20260506093301 | 53 | 260 | 2.6 | 7.0 | 0.00 | 0.00 | 0.00 | 83 | 1017.1 |
| 20260506093056 | 53 | 273 | 2.6 | 7.0 | 0.00 | 0.00 | 0.00 | 83 | 1017.1 |
| 20260506092956 | 53 | 261 | 2.6 | 7.0 | 0.00 | 0.00 | 0.00 | 83 | 1017.1 |
| 20260506092856 | 53 | 277 | 2.6 | 7.0 | 0.00 | 0.00 | 0.00 | 82 | 1017.1 |
| 20260506092754 | 53 | 256 | 2.6 | 7.0 | 0.00 | 0.00 | 0.00 | 83 | 1017.1 |
| 20260506092545 | 53 | 241 | 1.7 | 6.1 | 0.00 | 0.00 | 0.00 | 83 | 1017.2 |
| 20260506092446 | 53 | 232 | 2.6 | 6.1 | 0.00 | 0.00 | 0.00 | 83 | 1017.1 |
| 20260506092346 | 53 | 228 | 2.6 | 6.1 | 0.00 | 0.00 | 0.00 | 83 | 1017.1 |
| 20260506092300 | 53 | 228 | 2.6 | 6.1 | 0.00 | 0.00 | 0.00 | 83 | 1017.1 |
| 20260506092250 | 53 | 249 | 2.6 | 7.0 | 0.00 | 0.00 | 0.00 | 83 | 1017.1 |
| 20260506092041 | 53 | 228 | 2.6 | 7.0 | 0.00 | 0.00 | 0.00 | 83 | 1017.1 |
| 20260506091939 | 53 | 228 | 2.6 | 7.0 | 0.00 | 0.00 | 0.00 | 83 | 1017.1 |
| 20260506091839 | 53 | 250 | 2.6 | 7.0 | 0.00 | 0.00 | 0.00 | 83 | 1017.0 |
| 20260506091741 | 53 | 249 | 2.6 | 7.0 | 0.00 | 0.00 | 0.00 | 83 | 1017.0 |
| 20260506091534 | 53 | 258 | 2.6 | 7.0 | 0.00 | 0.00 | 0.00 | 83 | 1017.0 |
| 20260506091434 | 53 | 225 | 2.6 | 7.0 | 0.00 | 0.00 | 0.00 | 83 | 1017.0 |
| 20260506091334 | 53 | 258 | 2.6 | 7.0 | 0.00 | 0.00 | 0.00 | 83 | 1017.0 |
| 20260506091234 | 53 | 249 | 2.6 | 7.0 | 0.00 | 0.00 | 0.00 | 83 | 1017.0 |
| 20260506091027 | 53 | 232 | 2.6 | 5.2 | 0.00 | 0.00 | 0.00 | 83 | 1017.0 |
| 20260506090927 | 53 | 244 | 2.6 | 4.3 | 0.00 | 0.00 | 0.00 | 83 | 1017.0 |
| 20260506090827 | 53 | 244 | 2.6 | 4.3 | 0.00 | 0.00 | 0.00 | 83 | 1017.1 |
| 20260506090727 | 53 | 250 | 2.6 | 5.2 | 0.00 | 0.00 | 0.00 | 83 | 1017.0 |
| 20260506090528 | 53 | 273 | 2.6 | 5.2 | 0.00 | 0.00 | 0.00 | 83 | 1017.0 |
| 20260506090425 | 53 | 262 | 2.6 | 5.2 | 0.00 | 0.00 | 0.00 | 83 | 1017.0 |
| 20260506090326 | 53 | 248 | 2.6 | 5.2 | 0.00 | 0.00 | 0.00 | 83 | 1017.0 |
| 20260506090236 | 53 | 261 | 2.6 | 5.2 | 0.00 | 0.00 | 0.00 | 83 | 1017.0 |
| 20260506090226 | 53 | 233 | 2.6 | 5.2 | 0.00 | 0.00 | 0.00 | 83 | 1017.0 |
| 20260506090018 | 54 | 248 | 1.7 | 5.2 | 0.00 | 0.00 | 0.00 | 83 | 1017.0 |
| 20260506085918 | 54 | 233 | 1.7 | 5.2 | 0.00 | 0.00 | 0.00 | 83 | 1017.0 |
| 20260506085818 | 54 | 281 | 1.7 | 5.2 | 0.00 | 0.00 | 0.00 | 83 | 1017.0 |
| 20260506085718 | 54 | 244 | 1.7 | 4.3 | 0.00 | 0.00 | 0.00 | 83 | 1017.0 |
| 20260506085510 | 54 | 242 | 1.7 | 3.5 | 0.00 | 0.00 | 0.00 | 83 | 1016.9 |
| 20260506085410 | 54 | 257 | 1.7 | 3.5 | 0.00 | 0.00 | 0.00 | 83 | 1016.9 |
| 20260506085310 | 54 | 252 | 1.7 | 7.0 | 0.00 | 0.00 | 0.00 | 83 | 1016.9 |
| 20260506085210 | 54 | 252 | 1.7 | 7.0 | 0.00 | 0.00 | 0.00 | 83 | 1016.9 |
| 20260506085004 | 54 | 246 | 1.7 | 7.0 | 0.00 | 0.00 | 0.00 | 83 | 1016.9 |
| 20260506084903 | 54 | 246 | 1.7 | 7.0 | 0.00 | 0.00 | 0.00 | 83 | 1016.9 |
| 20260506084804 | 54 | 246 | 1.7 | 7.0 | 0.00 | 0.00 | 0.00 | 83 | 1016.9 |
| 20260506084704 | 54 | 244 | 1.7 | 7.0 | 0.00 | 0.00 | 0.00 | 83 | 1016.9 |
| 20260506084604 | 54 | 244 | 1.7 | 7.0 | 0.00 | 0.00 | 0.00 | 83 | 1016.9 |
| 20260506084504 | 54 | 244 | 1.7 | 7.0 | 0.00 | 0.00 | 0.00 | 82 | 1016.9 |
| 20260506084403 | 54 | 244 | 1.7 | 7.0 | 0.00 | 0.00 | 0.00 | 82 | 1016.8 |
| 20260506084300 | 54 | 247 | 1.7 | 6.1 | 0.00 | 0.00 | 0.00 | 82 | 1016.8 |
| 20260506084214 | 54 | 256 | 1.7 | 5.2 | 0.00 | 0.00 | 0.00 | 82 | 1016.9 |
| 20260506084100 | 54 | 247 | 1.7 | 3.5 | 0.00 | 0.00 | 0.00 | 82 | 1016.8 |
| 20260506084000 | 54 | 273 | 1.7 | 3.5 | 0.00 | 0.00 | 0.00 | 82 | 1016.8 |
| 20260506083859 | 54 | 273 | 1.7 | 3.5 | 0.00 | 0.00 | 0.00 | 82 | 1016.8 |
| 20260506083800 | 54 | 261 | 1.7 | 3.5 | 0.00 | 0.00 | 0.00 | 82 | 1016.8 |
| 20260506083700 | 54 | 225 | 1.7 | 3.5 | 0.00 | 0.00 | 0.00 | 82 | 1016.7 |
| 20260506083559 | 54 | 225 | 1.7 | 4.3 | 0.00 | 0.00 | 0.00 | 82 | 1016.8 |
| 20260506083459 | 54 | 250 | 1.7 | 4.3 | 0.00 | 0.00 | 0.00 | 82 | 1016.7 |
| 20260506083401 | 54 | 261 | 1.7 | 4.3 | 0.00 | 0.00 | 0.00 | 82 | 1016.8 |
| 20260506083300 | 54 | 257 | 1.7 | 4.3 | 0.00 | 0.00 | 0.00 | 82 | 1016.8 |
| 20260506083200 | 54 | 232 | 2.6 | 5.2 | 0.00 | 0.00 | 0.00 | 82 | 1016.8 |
| 20260506083100 | 54 | 240 | 2.6 | 7.8 | 0.00 | 0.00 | 0.00 | 82 | 1016.7 |
| 20260506082958 | 54 | 240 | 2.6 | 7.8 | 0.00 | 0.00 | 0.00 | 82 | 1016.7 |
| 20260506082856 | 54 | 257 | 2.6 | 7.8 | 0.00 | 0.00 | 0.00 | 82 | 1016.8 |
| 20260506082756 | 54 | 257 | 2.6 | 7.8 | 0.00 | 0.00 | 0.00 | 82 | 1016.7 |
| 20260506082653 | 54 | 241 | 2.6 | 7.8 | 0.00 | 0.00 | 0.00 | 82 | 1016.8 |
| 20260506082551 | 54 | 229 | 2.6 | 7.8 | 0.00 | 0.00 | 0.00 | 82 | 1016.8 |
| 20260506082452 | 54 | 229 | 2.6 | 7.8 | 0.00 | 0.00 | 0.00 | 82 | 1016.8 |
| 20260506082350 | 54 | 255 | 2.6 | 7.8 | 0.00 | 0.00 | 0.00 | 82 | 1016.7 |
| 20260506082250 | 54 | 272 | 2.6 | 7.8 | 0.00 | 0.00 | 0.00 | 82 | 1016.7 |
| 20260506082150 | 54 | 258 | 1.7 | 7.8 | 0.00 | 0.00 | 0.00 | 82 | 1016.7 |
| 20260506082050 | 54 | 246 | 2.6 | 4.3 | 0.00 | 0.00 | 0.00 | 82 | 1016.7 |
| 20260506081948 | 54 | 252 | 2.6 | 4.3 | 0.00 | 0.00 | 0.00 | 82 | 1016.8 |
| 20260506081848 | 54 | 219 | 1.7 | 4.3 | 0.00 | 0.00 | 0.00 | 82 | 1016.8 |
| 20260506081748 | 54 | 303 | 1.7 | 4.3 | 0.00 | 0.00 | 0.00 | 82 | 1016.8 |
| 20260506081709 | 54 | 284 | 1.7 | 7.0 | 0.00 | 0.00 | 0.00 | 82 | 1016.7 |
| 20260506081548 | 54 | 242 | 1.7 | 7.0 | 0.00 | 0.00 | 0.00 | 82 | 1016.8 |
| 20260506081448 | 54 | 272 | 1.7 | 7.0 | 0.00 | 0.00 | 0.00 | 82 | 1016.8 |
| 20260506081348 | 54 | 272 | 2.6 | 7.0 | 0.00 | 0.00 | 0.00 | 82 | 1016.8 |
| 20260506081248 | 54 | 278 | 2.6 | 7.0 | 0.00 | 0.00 | 0.00 | 82 | 1016.8 |
| 20260506081148 | 54 | 258 | 2.6 | 7.0 | 0.00 | 0.00 | 0.00 | 82 | 1016.8 |
| 20260506081048 | 54 | 252 | 2.6 | 7.0 | 0.00 | 0.00 | 0.00 | 82 | 1016.8 |
| 20260506080946 | 54 | 254 | 2.6 | 7.0 | 0.00 | 0.00 | 0.00 | 82 | 1016.8 |
| 20260506080845 | 54 | 250 | 2.6 | 7.0 | 0.00 | 0.00 | 0.00 | 82 | 1016.8 |
| 20260506080744 | 54 | 271 | 2.6 | 7.0 | 0.00 | 0.00 | 0.00 | 82 | 1016.8 |
| 20260506080710 | 54 | 250 | 2.6 | 7.0 | 0.00 | 0.00 | 0.00 | 82 | 1016.7 |
| 20260506080539 | 54 | 287 | 2.6 | 7.0 | 0.00 | 0.00 | 0.00 | 82 | 1016.7 |
| 20260506080439 | 54 | 287 | 2.6 | 7.0 | 0.00 | 0.00 | 0.00 | 82 | 1016.8 |
| 20260506080339 | 54 | 272 | 2.6 | 7.0 | 0.00 | 0.00 | 0.00 | 82 | 1016.8 |
| 20260506080239 | 54 | 269 | 2.6 | 7.0 | 0.00 | 0.00 | 0.00 | 82 | 1016.8 |
| 20260506080139 | 54 | 264 | 2.6 | 7.0 | 0.00 | 0.00 | 0.00 | 82 | 1016.7 |
| 20260506073521 | 54 | 261 | 1.7 | 3.5 | 0.00 | 0.00 | 0.00 | 82 | 1016.4 |
| 20260506073419 | 54 | 261 | 1.7 | 3.5 | 0.00 | 0.00 | 0.00 | 82 | 1016.4 |
| 20260506073319 | 54 | 261 | 1.7 | 3.5 | 0.00 | 0.00 | 0.00 | 82 | 1016.3 |
| 20260506073219 | 54 | 251 | 0.9 | 5.2 | 0.00 | 0.00 | 0.00 | 82 | 1016.3 |
| 20260506073119 | 54 | 272 | 0.9 | 5.2 | 0.00 | 0.00 | 0.00 | 82 | 1016.3 |
| 20260506073019 | 54 | 242 | 0.9 | 5.2 | 0.00 | 0.00 | 0.00 | 82 | 1016.3 |
| 20260506072919 | 54 | 242 | 0.9 | 5.2 | 0.00 | 0.00 | 0.00 | 82 | 1016.4 |
| 20260506072819 | 54 | 242 | 1.7 | 5.2 | 0.00 | 0.00 | 0.00 | 82 | 1016.3 |
| 20260506072719 | 54 | 242 | 0.9 | 5.2 | 0.00 | 0.00 | 0.00 | 82 | 1016.3 |
| 20260506072619 | 54 | 218 | 0.9 | 5.2 | 0.00 | 0.00 | 0.00 | 81 | 1016.3 |
| 20260506072519 | 54 | 246 | 0.9 | 5.2 | 0.00 | 0.00 | 0.00 | 81 | 1016.3 |
| 20260506072419 | 54 | 246 | 0.9 | 5.2 | 0.00 | 0.00 | 0.00 | 81 | 1016.2 |
| 20260506072319 | 54 | 246 | 0.9 | 5.2 | 0.00 | 0.00 | 0.00 | 81 | 1016.2 |
| 20260506072219 | 54 | 246 | 0.9 | 5.2 | 0.00 | 0.00 | 0.00 | 81 | 1016.2 |
| 20260506072158 | 54 | 246 | 0.9 | 5.2 | 0.00 | 0.00 | 0.00 | 81 | 1016.2 |
| 20260506072016 | 54 | 246 | 0.9 | 5.2 | 0.00 | 0.00 | 0.00 | 81 | 1016.2 |
| 20260506071916 | 54 | 246 | 0.9 | 6.1 | 0.00 | 0.00 | 0.00 | 81 | 1016.2 |
| 20260506071816 | 54 | 287 | 0.9 | 6.1 | 0.00 | 0.00 | 0.00 | 81 | 1016.2 |
| 20260506071716 | 54 | 287 | 1.7 | 6.1 | 0.00 | 0.00 | 0.00 | 81 | 1016.2 |
| 20260506071658 | 54 | 287 | 1.7 | 6.1 | 0.00 | 0.00 | 0.00 | 81 | 1016.2 |
| 20260506071515 | 54 | 287 | 1.7 | 6.1 | 0.00 | 0.00 | 0.00 | 81 | 1016.2 |
| 20260506071415 | 54 | 287 | 1.7 | 6.1 | 0.00 | 0.00 | 0.00 | 81 | 1016.2 |
| 20260506071315 | 54 | 287 | 1.7 | 6.1 | 0.00 | 0.00 | 0.00 | 81 | 1016.2 |
| 20260506071215 | 54 | 272 | 1.7 | 6.1 | 0.00 | 0.00 | 0.00 | 81 | 1016.2 |
| 20260506071116 | 54 | 243 | 1.7 | 6.1 | 0.00 | 0.00 | 0.00 | 81 | 1016.2 |
| 20260506071015 | 54 | 243 | 1.7 | 6.1 | 0.00 | 0.00 | 0.00 | 81 | 1016.3 |
| 20260506070916 | 54 | 243 | 1.7 | 6.1 | 0.00 | 0.00 | 0.00 | 81 | 1016.3 |
| 20260506070816 | 54 | 243 | 1.7 | 6.1 | 0.00 | 0.00 | 0.00 | 81 | 1016.3 |
| 20260506070716 | 54 | 243 | 1.7 | 6.1 | 0.00 | 0.00 | 0.00 | 81 | 1016.2 |
| 20260506070616 | 54 | 273 | 1.7 | 6.1 | 0.00 | 0.00 | 0.00 | 81 | 1016.3 |
| 20260506070516 | 54 | 273 | 1.7 | 6.1 | 0.00 | 0.00 | 0.00 | 81 | 1016.2 |
| 20260506070416 | 54 | 273 | 1.7 | 6.1 | 0.00 | 0.00 | 0.00 | 81 | 1016.3 |
| 20260506070316 | 54 | 253 | 1.7 | 6.1 | 0.00 | 0.00 | 0.00 | 81 | 1016.3 |
| 20260506070212 | 54 | 253 | 1.7 | 6.1 | 0.00 | 0.00 | 0.00 | 81 | 1016.3 |
| 20260506070109 | 54 | 263 | 1.7 | 6.1 | 0.00 | 0.00 | 0.00 | 81 | 1016.3 |
| 20260506062445 | 54 | 277 | 1.7 | 3.5 | 0.00 | 0.00 | 0.00 | 81 | 1016.2 |
| 20260506062342 | 54 | 210 | 1.7 | 2.6 | 0.00 | 0.00 | 0.00 | 81 | 1016.2 |
| 20260506062242 | 54 | 244 | 1.7 | 5.2 | 0.00 | 0.00 | 0.00 | 81 | 1016.3 |
| 20260506062156 | 54 | 244 | 1.7 | 5.2 | 0.00 | 0.00 | 0.00 | 81 | 1016.2 |
| 20260506062146 | 54 | 244 | 1.7 | 5.2 | 0.00 | 0.00 | 0.00 | 81 | 1016.3 |
| 20260506061937 | 54 | 249 | 1.7 | 5.2 | 0.00 | 0.00 | 0.00 | 81 | 1016.3 |
| 20260506061837 | 54 | 270 | 1.7 | 5.2 | 0.00 | 0.00 | 0.00 | 81 | 1016.2 |
| 20260506061737 | 54 | 270 | 0.9 | 5.2 | 0.00 | 0.00 | 0.00 | 81 | 1016.2 |
| 20260506061637 | 54 | 270 | 0.9 | 5.2 | 0.00 | 0.00 | 0.00 | 81 | 1016.2 |
| 20260506061537 | 54 | 259 | 0.9 | 5.2 | 0.00 | 0.00 | 0.00 | 81 | 1016.2 |
| 20260506061435 | 54 | 250 | 0.9 | 5.2 | 0.00 | 0.00 | 0.00 | 81 | 1016.2 |
| 20260506061335 | 54 | 249 | 0.9 | 5.2 | 0.00 | 0.00 | 0.00 | 81 | 1016.2 |
| 20260506061235 | 54 | 246 | 0.9 | 3.5 | 0.00 | 0.00 | 0.00 | 81 | 1016.2 |
| 20260506061132 | 54 | 239 | 0.9 | 3.5 | 0.00 | 0.00 | 0.00 | 81 | 1016.2 |
| 20260506061030 | 54 | 283 | 0.9 | 4.3 | 0.00 | 0.00 | 0.00 | 81 | 1016.2 |
| 20260506060927 | 54 | 283 | 0.9 | 4.3 | 0.00 | 0.00 | 0.00 | 81 | 1016.2 |
| 20260506060824 | 54 | 283 | 1.7 | 4.3 | 0.00 | 0.00 | 0.00 | 81 | 1016.2 |
| 20260506060725 | 54 | 283 | 1.7 | 5.2 | 0.00 | 0.00 | 0.00 | 81 | 1016.2 |
| 20260506060625 | 54 | 283 | 1.7 | 5.2 | 0.00 | 0.00 | 0.00 | 81 | 1016.2 |
| 20260506060525 | 54 | 283 | 1.7 | 5.2 | 0.00 | 0.00 | 0.00 | 81 | 1016.2 |
| 20260506060425 | 54 | 283 | 1.7 | 5.2 | 0.00 | 0.00 | 0.00 | 81 | 1016.2 |
| 20260506060323 | 54 | 283 | 1.7 | 5.2 | 0.00 | 0.00 | 0.00 | 81 | 1016.2 |
| 20260506060223 | 54 | 283 | 2.6 | 5.2 | 0.00 | 0.00 | 0.00 | 81 | 1016.1 |
| 20260506060121 | 54 | 292 | 2.6 | 5.2 | 0.00 | 0.00 | 0.00 | 81 | 1016.2 |
| 20260506051405 | 55 | 248 | 2.6 | 7.0 | 0.00 | 0.00 | 0.00 | 80 | 1016.1 |
| 20260506051304 | 55 | 271 | 2.6 | 7.0 | 0.00 | 0.00 | 0.00 | 80 | 1016.1 |
| 20260506051206 | 55 | 273 | 2.6 | 5.2 | 0.00 | 0.00 | 0.00 | 80 | 1016.1 |
| 20260506051134 | 55 | 251 | 2.6 | 5.2 | 0.00 | 0.00 | 0.00 | 80 | 1016.1 |
| 20260506051001 | 55 | 252 | 2.6 | 5.2 | 0.00 | 0.00 | 0.00 | 80 | 1016.2 |
| 20260506050901 | 55 | 243 | 2.6 | 5.2 | 0.00 | 0.00 | 0.00 | 80 | 1016.2 |
| 20260506050801 | 55 | 264 | 2.6 | 5.2 | 0.00 | 0.00 | 0.00 | 80 | 1016.1 |
| 20260506050701 | 55 | 244 | 2.6 | 5.2 | 0.00 | 0.00 | 0.00 | 80 | 1016.2 |
| 20260506050601 | 55 | 242 | 2.6 | 5.2 | 0.00 | 0.00 | 0.00 | 80 | 1016.1 |
| 20260506050501 | 55 | 244 | 2.6 | 7.0 | 0.00 | 0.00 | 0.00 | 80 | 1016.2 |
| 20260506050401 | 55 | 275 | 2.6 | 7.0 | 0.00 | 0.00 | 0.00 | 80 | 1016.1 |
| 20260506050301 | 55 | 242 | 2.6 | 7.0 | 0.00 | 0.00 | 0.00 | 80 | 1016.1 |
| 20260506050201 | 55 | 267 | 2.6 | 7.0 | 0.00 | 0.00 | 0.00 | 80 | 1016.1 |
| 20260506045057 | 55 | 236 | 2.6 | 7.0 | 0.00 | 0.00 | 0.00 | 80 | 1016.0 |
| 20260506044957 | 55 | 250 | 2.6 | 7.0 | 0.00 | 0.00 | 0.00 | 80 | 1016.0 |
| 20260506044857 | 55 | 250 | 2.6 | 7.0 | 0.00 | 0.00 | 0.00 | 80 | 1016.0 |
| 20260506044757 | 55 | 249 | 2.6 | 7.0 | 0.00 | 0.00 | 0.00 | 80 | 1016.1 |
| 20260506044657 | 55 | 268 | 2.6 | 7.0 | 0.00 | 0.00 | 0.00 | 80 | 1016.0 |
| 20260506044557 | 55 | 281 | 2.6 | 7.0 | 0.00 | 0.00 | 0.00 | 80 | 1016.1 |
| 20260506044357 | 55 | 288 | 3.5 | 7.0 | 0.00 | 0.00 | 0.00 | 80 | 1016.0 |
| 20260506044157 | 55 | 257 | 2.6 | 5.2 | 0.00 | 0.00 | 0.00 | 80 | 1016.0 |
| 20260506044058 | 55 | 271 | 2.6 | 5.2 | 0.00 | 0.00 | 0.00 | 80 | 1016.0 |
| 20260506043957 | 55 | 270 | 2.6 | 5.2 | 0.00 | 0.00 | 0.00 | 80 | 1016.0 |
| 20260506043857 | 55 | 244 | 2.6 | 5.2 | 0.00 | 0.00 | 0.00 | 80 | 1016.0 |
| 20260506043757 | 55 | 240 | 2.6 | 5.2 | 0.00 | 0.00 | 0.00 | 80 | 1016.0 |
| 20260506043657 | 55 | 236 | 1.7 | 5.2 | 0.00 | 0.00 | 0.00 | 80 | 1016.0 |
| 20260506043557 | 55 | 248 | 1.7 | 5.2 | 0.00 | 0.00 | 0.00 | 80 | 1016.0 |
| 20260506043457 | 55 | 230 | 1.7 | 4.3 | 0.00 | 0.00 | 0.00 | 80 | 1016.0 |
| 20260506043357 | 55 | 244 | 2.6 | 6.1 | 0.00 | 0.00 | 0.00 | 80 | 1016.0 |
| 20260506043253 | 55 | 238 | 2.6 | 7.8 | 0.00 | 0.00 | 0.00 | 80 | 1016.0 |
| 20260506043153 | 55 | 264 | 2.6 | 7.8 | 0.00 | 0.00 | 0.00 | 80 | 1016.0 |
| 20260506043135 | 55 | 264 | 3.5 | 7.8 | 0.00 | 0.00 | 0.00 | 80 | 1016.0 |
| 20260506042952 | 55 | 264 | 3.5 | 7.8 | 0.00 | 0.00 | 0.00 | 80 | 1015.9 |
| 20260506042854 | 55 | 264 | 3.5 | 7.8 | 0.00 | 0.00 | 0.00 | 80 | 1015.9 |
| 20260506042753 | 55 | 243 | 3.5 | 7.8 | 0.00 | 0.00 | 0.00 | 80 | 1016.0 |
| 20260506042654 | 55 | 252 | 3.5 | 7.8 | 0.00 | 0.00 | 0.00 | 80 | 1016.0 |
| 20260506042553 | 55 | 248 | 3.5 | 7.8 | 0.00 | 0.00 | 0.00 | 80 | 1015.9 |
| 20260506042452 | 55 | 250 | 3.5 | 7.8 | 0.00 | 0.00 | 0.00 | 80 | 1015.9 |
| 20260506042353 | 55 | 225 | 2.6 | 7.8 | 0.00 | 0.00 | 0.00 | 80 | 1015.9 |
| 20260506042254 | 55 | 247 | 2.6 | 7.0 | 0.00 | 0.00 | 0.00 | 80 | 1015.8 |
| 20260506042153 | 55 | 231 | 2.6 | 5.2 | 0.00 | 0.00 | 0.00 | 80 | 1015.9 |
| 20260506042134 | 55 | 221 | 2.6 | 5.2 | 0.00 | 0.00 | 0.00 | 80 | 1015.9 |
| 20260506041953 | 55 | 238 | 1.7 | 5.2 | 0.00 | 0.00 | 0.00 | 80 | 1015.8 |
| 20260506041853 | 55 | 260 | 1.7 | 4.3 | 0.00 | 0.00 | 0.00 | 80 | 1015.8 |
| 20260506041753 | 55 | 281 | 1.7 | 4.3 | 0.00 | 0.00 | 0.00 | 80 | 1015.8 |
| 20260506041653 | 55 | 244 | 1.7 | 4.3 | 0.00 | 0.00 | 0.00 | 80 | 1015.8 |
| 20260506041553 | 55 | 256 | 1.7 | 4.3 | 0.00 | 0.00 | 0.00 | 80 | 1015.7 |
| 20260506041453 | 55 | 256 | 1.7 | 4.3 | 0.00 | 0.00 | 0.00 | 80 | 1015.7 |
| 20260506041348 | 55 | 281 | 1.7 | 4.3 | 0.00 | 0.00 | 0.00 | 80 | 1015.7 |
| 20260506041249 | 55 | 295 | 1.7 | 4.3 | 0.00 | 0.00 | 0.00 | 80 | 1015.7 |
| 20260506041149 | 55 | 259 | 1.7 | 4.3 | 0.00 | 0.00 | 0.00 | 80 | 1015.7 |
| 20260506041049 | 55 | 249 | 1.7 | 4.3 | 0.00 | 0.00 | 0.00 | 80 | 1015.6 |
| 20260506040949 | 55 | 249 | 1.7 | 4.3 | 0.00 | 0.00 | 0.00 | 80 | 1015.7 |
| 20260506040849 | 55 | 239 | 1.7 | 4.3 | 0.00 | 0.00 | 0.00 | 80 | 1015.6 |
| 20260506040749 | 55 | 240 | 1.7 | 4.3 | 0.00 | 0.00 | 0.00 | 80 | 1015.6 |
| 20260506040649 | 55 | 243 | 0.9 | 4.3 | 0.00 | 0.00 | 0.00 | 80 | 1015.5 |
| 20260506040549 | 55 | 245 | 0.9 | 3.5 | 0.00 | 0.00 | 0.00 | 80 | 1015.5 |
| 20260506040450 | 55 | 255 | 0.9 | 2.6 | 0.00 | 0.00 | 0.00 | 80 | 1015.5 |
| 20260506040350 | 55 | 245 | 0.9 | 2.6 | 0.00 | 0.00 | 0.00 | 80 | 1015.5 |
| 20260506040249 | 55 | 245 | 0.9 | 8.7 | 0.00 | 0.00 | 0.00 | 80 | 1015.4 |
| 20260506040149 | 55 | 245 | 0.9 | 8.7 | 0.00 | 0.00 | 0.00 | 80 | 1015.5 |
| 20260506040049 | 55 | 245 | 0.9 | 8.7 | 0.00 | 0.00 | 0.00 | 80 | 1015.5 |
| 20260506035949 | 55 | 245 | 1.7 | 8.7 | 0.00 | 0.00 | 0.00 | 80 | 1015.5 |
| 20260506035849 | 55 | 245 | 1.7 | 8.7 | 0.00 | 0.00 | 0.00 | 80 | 1015.5 |
| 20260506035749 | 55 | 245 | 1.7 | 8.7 | 0.00 | 0.00 | 0.00 | 80 | 1015.5 |
| 20260506035649 | 55 | 245 | 2.6 | 8.7 | 0.00 | 0.00 | 0.00 | 80 | 1015.5 |
| 20260506035549 | 55 | 245 | 2.6 | 8.7 | 0.00 | 0.00 | 0.00 | 80 | 1015.4 |
| 20260506035445 | 55 | 245 | 3.5 | 8.7 | 0.00 | 0.00 | 0.00 | 80 | 1015.4 |
| 20260506035345 | 55 | 245 | 3.5 | 8.7 | 0.00 | 0.00 | 0.00 | 80 | 1015.5 |
| 20260506035245 | 55 | 247 | 3.5 | 8.7 | 0.00 | 0.00 | 0.00 | 80 | 1015.4 |
| 20260506035145 | 55 | 272 | 3.5 | 8.7 | 0.00 | 0.00 | 0.00 | 80 | 1015.4 |
| 20260506035045 | 55 | 244 | 3.5 | 8.7 | 0.00 | 0.00 | 0.00 | 80 | 1015.4 |
| 20260506034945 | 55 | 254 | 3.5 | 8.7 | 0.00 | 0.00 | 0.00 | 80 | 1015.4 |
| 20260506034845 | 55 | 247 | 3.5 | 8.7 | 0.00 | 0.00 | 0.00 | 80 | 1015.4 |
| 20260506034745 | 55 | 288 | 3.5 | 8.7 | 0.00 | 0.00 | 0.00 | 80 | 1015.4 |
| 20260506034645 | 55 | 261 | 2.6 | 8.7 | 0.00 | 0.00 | 0.00 | 80 | 1015.4 |
| 20260506034545 | 55 | 231 | 2.6 | 8.7 | 0.00 | 0.00 | 0.00 | 80 | 1015.4 |
| 20260506034445 | 55 | 244 | 2.6 | 8.7 | 0.00 | 0.00 | 0.00 | 80 | 1015.3 |
| 20260506034344 | 55 | 236 | 1.7 | 8.7 | 0.00 | 0.00 | 0.00 | 80 | 1015.3 |
| 20260506034243 | 55 | 268 | 1.7 | 7.0 | 0.00 | 0.00 | 0.00 | 80 | 1015.3 |
| 20260506034143 | 55 | 235 | 1.7 | 7.0 | 0.00 | 0.00 | 0.00 | 80 | 1015.2 |
| 20260506034042 | 55 | 235 | 1.7 | 7.0 | 0.00 | 0.00 | 0.00 | 80 | 1015.2 |
| 20260506033941 | 55 | 246 | 1.7 | 7.0 | 0.00 | 0.00 | 0.00 | 80 | 1015.2 |
| 20260506033838 | 55 | 240 | 1.7 | 7.0 | 0.00 | 0.00 | 0.00 | 80 | 1015.2 |
| 20260506033736 | 55 | 240 | 1.7 | 7.0 | 0.00 | 0.00 | 0.00 | 80 | 1015.2 |
| 20260506033637 | 55 | 292 | 1.7 | 7.0 | 0.00 | 0.00 | 0.00 | 80 | 1015.2 |
| 20260506033537 | 55 | 292 | 1.7 | 7.0 | 0.00 | 0.00 | 0.00 | 80 | 1015.1 |
| 20260506033436 | 55 | 265 | 2.6 | 7.0 | 0.00 | 0.00 | 0.00 | 80 | 1015.2 |
| 20260506033332 | 55 | 252 | 2.6 | 7.0 | 0.00 | 0.00 | 0.00 | 80 | 1015.2 |
| 20260506033227 | 55 | 242 | 2.6 | 7.0 | 0.00 | 0.00 | 0.00 | 80 | 1015.2 |
| 20260506033125 | 55 | 263 | 2.6 | 7.0 | 0.00 | 0.00 | 0.00 | 80 | 1015.2 |
| 20260506033025 | 55 | 246 | 2.6 | 7.0 | 0.00 | 0.00 | 0.00 | 80 | 1015.2 |
| 20260506032925 | 55 | 237 | 2.6 | 7.0 | 0.00 | 0.00 | 0.00 | 79 | 1015.3 |
| 20260506032823 | 55 | 248 | 2.6 | 7.0 | 0.00 | 0.00 | 0.00 | 79 | 1015.3 |
| 20260506032720 | 55 | 249 | 2.6 | 7.0 | 0.00 | 0.00 | 0.00 | 79 | 1015.3 |
| 20260506032618 | 55 | 246 | 2.6 | 7.0 | 0.00 | 0.00 | 0.00 | 79 | 1015.2 |
| 20260506032418 | 55 | 244 | 2.6 | 7.0 | 0.00 | 0.00 | 0.00 | 79 | 1015.3 |
| 20260506032317 | 55 | 261 | 1.7 | 6.1 | 0.00 | 0.00 | 0.00 | 79 | 1015.3 |
| 20260506032216 | 55 | 248 | 1.7 | 6.1 | 0.00 | 0.00 | 0.00 | 79 | 1015.2 |
| 20260506032116 | 55 | 240 | 1.7 | 6.1 | 0.00 | 0.00 | 0.00 | 79 | 1015.2 |
| 20260506032014 | 55 | 269 | 1.7 | 6.1 | 0.00 | 0.00 | 0.00 | 79 | 1015.2 |
| 20260506031914 | 55 | 245 | 1.7 | 6.1 | 0.00 | 0.00 | 0.00 | 79 | 1015.2 |
| 20260506031812 | 55 | 245 | 2.6 | 6.1 | 0.00 | 0.00 | 0.00 | 79 | 1015.2 |
| 20260506031707 | 55 | 245 | 2.6 | 6.1 | 0.00 | 0.00 | 0.00 | 79 | 1015.2 |
| 20260506031606 | 55 | 278 | 2.6 | 6.1 | 0.00 | 0.00 | 0.00 | 79 | 1015.2 |
| 20260506031507 | 55 | 247 | 2.6 | 6.1 | 0.00 | 0.00 | 0.00 | 79 | 1015.2 |
| 20260506031407 | 55 | 279 | 2.6 | 6.1 | 0.00 | 0.00 | 0.00 | 79 | 1015.2 |
| 20260506031305 | 56 | 264 | 2.6 | 6.1 | 0.00 | 0.00 | 0.00 | 79 | 1015.3 |
| 20260506031200 | 56 | 244 | 2.6 | 6.1 | 0.00 | 0.00 | 0.00 | 79 | 1015.2 |
| 20260506031100 | 56 | 250 | 2.6 | 6.1 | 0.00 | 0.00 | 0.00 | 79 | 1015.2 |
| 20260506031000 | 56 | 267 | 2.6 | 6.1 | 0.00 | 0.00 | 0.00 | 79 | 1015.2 |
| 20260506030901 | 56 | 269 | 2.6 | 6.1 | 0.00 | 0.00 | 0.00 | 79 | 1015.2 |
| 20260506030800 | 56 | 248 | 2.6 | 6.1 | 0.00 | 0.00 | 0.00 | 79 | 1015.3 |
| 20260506030654 | 56 | 284 | 2.6 | 7.0 | 0.00 | 0.00 | 0.00 | 79 | 1015.2 |
| 20260506030554 | 56 | 215 | 2.6 | 7.0 | 0.00 | 0.00 | 0.00 | 79 | 1015.2 |
| 20260506030454 | 56 | 233 | 2.6 | 7.0 | 0.00 | 0.00 | 0.00 | 79 | 1015.3 |
| 20260506030354 | 56 | 236 | 2.6 | 7.0 | 0.00 | 0.00 | 0.00 | 79 | 1015.3 |
| 20260506030252 | 56 | 222 | 2.6 | 7.0 | 0.00 | 0.00 | 0.00 | 78 | 1015.2 |
| 20260506030149 | 56 | 221 | 2.6 | 7.0 | 0.00 | 0.00 | 0.00 | 78 | 1015.3 |
| 20260506030045 | 56 | 221 | 2.6 | 7.0 | 0.00 | 0.00 | 0.00 | 78 | 1015.3 |
| 20260506025947 | 56 | 269 | 2.6 | 7.0 | 0.00 | 0.00 | 0.00 | 78 | 1015.3 |
| 20260506025847 | 56 | 261 | 2.6 | 7.0 | 0.00 | 0.00 | 0.00 | 78 | 1015.3 |
| 20260506025745 | 56 | 248 | 2.6 | 7.0 | 0.00 | 0.00 | 0.00 | 78 | 1015.3 |
| 20260506025646 | 56 | 249 | 2.6 | 7.0 | 0.00 | 0.00 | 0.00 | 78 | 1015.3 |
| 20260506025544 | 56 | 245 | 2.6 | 7.0 | 0.00 | 0.00 | 0.00 | 78 | 1015.3 |
| 20260506025444 | 56 | 245 | 2.6 | 7.0 | 0.00 | 0.00 | 0.00 | 78 | 1015.3 |
| 20260506025343 | 56 | 221 | 2.6 | 7.0 | 0.00 | 0.00 | 0.00 | 78 | 1015.3 |
| 20260506025240 | 56 | 271 | 2.6 | 7.0 | 0.00 | 0.00 | 0.00 | 78 | 1015.2 |
| 20260506025134 | 56 | 249 | 2.6 | 7.0 | 0.00 | 0.00 | 0.00 | 78 | 1015.2 |
| 20260506025034 | 56 | 255 | 2.6 | 7.0 | 0.00 | 0.00 | 0.00 | 78 | 1015.2 |
| 20260506024934 | 56 | 246 | 2.6 | 7.0 | 0.00 | 0.00 | 0.00 | 78 | 1015.2 |
| 20260506024834 | 56 | 248 | 2.6 | 7.0 | 0.00 | 0.00 | 0.00 | 78 | 1015.1 |
| 20260506024734 | 56 | 257 | 1.7 | 7.0 | 0.00 | 0.00 | 0.00 | 78 | 1015.1 |
| 20260506024631 | 56 | 238 | 1.7 | 7.0 | 0.00 | 0.00 | 0.00 | 78 | 1015.1 |
| 20260506024621 | 56 | 248 | 1.7 | 7.0 | 0.00 | 0.00 | 0.00 | 78 | 1015.1 |
| 20260506024428 | 56 | 272 | 1.7 | 7.0 | 0.00 | 0.00 | 0.00 | 78 | 1015.1 |
| 20260506024328 | 56 | 247 | 1.7 | 7.0 | 0.00 | 0.00 | 0.00 | 78 | 1015.1 |
| 20260506024227 | 56 | 265 | 0.9 | 7.0 | 0.00 | 0.00 | 0.00 | 78 | 1015.1 |
| 20260506024128 | 56 | 233 | 1.7 | 7.0 | 0.00 | 0.00 | 0.00 | 79 | 1015.1 |
| 20260506024026 | 56 | 292 | 1.7 | 7.0 | 0.00 | 0.00 | 0.00 | 79 | 1015.0 |
| 20260506023926 | 56 | 276 | 1.7 | 7.0 | 0.00 | 0.00 | 0.00 | 79 | 1015.0 |
| 20260506023824 | 56 | 263 | 1.7 | 7.0 | 0.00 | 0.00 | 0.00 | 79 | 1015.1 |
| 20260506023722 | 56 | 263 | 1.7 | 7.0 | 0.00 | 0.00 | 0.00 | 79 | 1015.0 |
| 20260506023620 | 56 | 273 | 1.7 | 7.0 | 0.00 | 0.00 | 0.00 | 79 | 1015.1 |
| 20260506023418 | 56 | 287 | 1.7 | 7.0 | 0.00 | 0.00 | 0.00 | 79 | 1015.1 |
| 20260506023319 | 56 | 287 | 1.7 | 7.0 | 0.00 | 0.00 | 0.00 | 79 | 1015.1 |
| 20260506023219 | 56 | 286 | 1.7 | 7.0 | 0.00 | 0.00 | 0.00 | 79 | 1015.1 |
| 20260506023119 | 56 | 244 | 1.7 | 7.0 | 0.00 | 0.00 | 0.00 | 79 | 1015.1 |
| 20260506023018 | 56 | 268 | 1.7 | 7.0 | 0.00 | 0.00 | 0.00 | 79 | 1015.1 |
| 20260506022918 | 56 | 240 | 1.7 | 3.5 | 0.00 | 0.00 | 0.00 | 79 | 1015.1 |
| 20260506022816 | 56 | 240 | 1.7 | 3.5 | 0.00 | 0.00 | 0.00 | 79 | 1015.1 |
| 20260506022716 | 56 | 240 | 1.7 | 3.5 | 0.00 | 0.00 | 0.00 | 78 | 1015.0 |
| 20260506022616 | 56 | 240 | 1.7 | 3.5 | 0.00 | 0.00 | 0.00 | 78 | 1015.1 |
| 20260506022414 | 56 | 240 | 1.7 | 3.5 | 0.00 | 0.00 | 0.00 | 78 | 1015.0 |
| 20260506022314 | 56 | 240 | 1.7 | 3.5 | 0.00 | 0.00 | 0.00 | 78 | 1015.0 |
| 20260506022213 | 56 | 258 | 1.7 | 3.5 | 0.00 | 0.00 | 0.00 | 78 | 1015.0 |
| 20260506022113 | 56 | 268 | 1.7 | 3.5 | 0.00 | 0.00 | 0.00 | 78 | 1015.0 |
| 20260506021911 | 56 | 238 | 1.7 | 3.5 | 0.00 | 0.00 | 0.00 | 78 | 1015.0 |
| 20260506021808 | 56 | 244 | 1.7 | 5.2 | 0.00 | 0.00 | 0.00 | 79 | 1015.0 |
| 20260506021708 | 56 | 226 | 1.7 | 7.8 | 0.00 | 0.00 | 0.00 | 79 | 1015.0 |
| 20260506021608 | 56 | 228 | 1.7 | 7.8 | 0.00 | 0.00 | 0.00 | 79 | 1015.0 |
| 20260506021408 | 56 | 269 | 1.7 | 7.8 | 0.00 | 0.00 | 0.00 | 79 | 1015.1 |
| 20260506021308 | 56 | 246 | 1.7 | 7.8 | 0.00 | 0.00 | 0.00 | 79 | 1015.1 |
| 20260506021208 | 56 | 278 | 1.7 | 7.8 | 0.00 | 0.00 | 0.00 | 79 | 1015.0 |
| 20260506021122 | 56 | 236 | 1.7 | 7.8 | 0.00 | 0.00 | 0.00 | 79 | 1015.1 |
| 20260506021112 | 56 | 277 | 2.6 | 7.8 | 0.00 | 0.00 | 0.00 | 79 | 1015.1 |
| 20260506020902 | 56 | 277 | 2.6 | 7.8 | 0.00 | 0.00 | 0.00 | 79 | 1015.1 |
| 20260506020802 | 56 | 263 | 2.6 | 6.1 | 0.00 | 0.00 | 0.00 | 79 | 1015.1 |
| 20260506020702 | 56 | 237 | 2.6 | 6.1 | 0.00 | 0.00 | 0.00 | 79 | 1015.1 |
| 20260506020602 | 56 | 237 | 2.6 | 6.1 | 0.00 | 0.00 | 0.00 | 79 | 1015.1 |
| 20260506020356 | 56 | 244 | 2.6 | 6.1 | 0.00 | 0.00 | 0.00 | 79 | 1015.2 |
| 20260506020256 | 56 | 277 | 2.6 | 6.1 | 0.00 | 0.00 | 0.00 | 79 | 1015.1 |
| 20260506020156 | 56 | 246 | 2.6 | 6.1 | 0.00 | 0.00 | 0.00 | 79 | 1015.1 |
| 20260506020114 | 56 | 251 | 2.6 | 6.1 | 0.00 | 0.00 | 0.00 | 79 | 1015.1 |
| 20260506015850 | 56 | 229 | 1.7 | 6.1 | 0.00 | 0.00 | 0.00 | 79 | 1015.1 |
| 20260506015750 | 56 | 265 | 2.6 | 6.1 | 0.00 | 0.00 | 0.00 | 79 | 1015.1 |
| 20260506015650 | 56 | 222 | 2.6 | 6.1 | 0.00 | 0.00 | 0.00 | 79 | 1015.1 |
| 20260506015604 | 56 | 242 | 2.6 | 6.1 | 0.00 | 0.00 | 0.00 | 79 | 1015.2 |
| 20260506015554 | 57 | 243 | 2.6 | 6.1 | 0.00 | 0.00 | 0.00 | 79 | 1015.2 |
| 20260506015344 | 57 | 278 | 2.6 | 6.1 | 0.00 | 0.00 | 0.00 | 79 | 1015.1 |
| 20260506015244 | 57 | 259 | 2.6 | 6.1 | 0.00 | 0.00 | 0.00 | 79 | 1015.1 |
| 20260506015144 | 57 | 255 | 2.6 | 6.1 | 0.00 | 0.00 | 0.00 | 79 | 1015.1 |
| 20260506015044 | 56 | 265 | 2.6 | 6.1 | 0.00 | 0.00 | 0.00 | 79 | 1015.0 |
| 20260506014840 | 57 | 225 | 2.6 | 7.0 | 0.00 | 0.00 | 0.00 | 78 | 1015.0 |
| 20260506014740 | 57 | 236 | 2.6 | 7.0 | 0.00 | 0.00 | 0.00 | 78 | 1015.1 |
| 20260506014640 | 57 | 245 | 2.6 | 7.0 | 0.00 | 0.00 | 0.00 | 78 | 1015.0 |
| 20260506014540 | 57 | 246 | 2.6 | 7.0 | 0.00 | 0.00 | 0.00 | 78 | 1015.0 |
| 20260506014333 | 57 | 246 | 2.6 | 7.0 | 0.00 | 0.00 | 0.00 | 78 | 1015.1 |
| 20260506014232 | 57 | 235 | 3.5 | 7.0 | 0.00 | 0.00 | 0.00 | 78 | 1015.0 |
| 20260506014032 | 57 | 275 | 3.5 | 7.0 | 0.00 | 0.00 | 0.00 | 79 | 1015.1 |
| 20260506013826 | 57 | 257 | 3.5 | 7.0 | 0.00 | 0.00 | 0.00 | 79 | 1015.1 |
| 20260506013726 | 57 | 240 | 2.6 | 7.0 | 0.00 | 0.00 | 0.00 | 79 | 1015.1 |
| 20260506013626 | 57 | 240 | 2.6 | 7.0 | 0.00 | 0.00 | 0.00 | 79 | 1015.1 |
| 20260506013527 | 57 | 261 | 2.6 | 7.0 | 0.00 | 0.00 | 0.00 | 79 | 1015.1 |
| 20260506013320 | 57 | 250 | 2.6 | 8.7 | 0.00 | 0.00 | 0.00 | 79 | 1015.1 |
| 20260506013220 | 57 | 239 | 2.6 | 8.7 | 0.00 | 0.00 | 0.00 | 79 | 1015.1 |
| 20260506013120 | 57 | 265 | 2.6 | 8.7 | 0.00 | 0.00 | 0.00 | 79 | 1015.1 |
| 20260506013034 | 57 | 238 | 2.6 | 8.7 | 0.00 | 0.00 | 0.00 | 79 | 1015.1 |
| 20260506013024 | 57 | 238 | 2.6 | 8.7 | 0.00 | 0.00 | 0.00 | 79 | 1015.1 |
| 20260506012819 | 57 | 215 | 2.6 | 8.7 | 0.00 | 0.00 | 0.00 | 79 | 1015.1 |
| 20260506012718 | 57 | 243 | 2.6 | 8.7 | 0.00 | 0.00 | 0.00 | 79 | 1015.1 |
| 20260506012618 | 57 | 243 | 2.6 | 8.7 | 0.00 | 0.00 | 0.00 | 78 | 1015.1 |
| 20260506012516 | 57 | 267 | 2.6 | 8.7 | 0.00 | 0.00 | 0.00 | 79 | 1015.1 |
| 20260506012312 | 57 | 247 | 1.7 | 6.1 | 0.00 | 0.00 | 0.00 | 79 | 1015.1 |
| 20260506012213 | 57 | 267 | 1.7 | 6.1 | 0.00 | 0.00 | 0.00 | 79 | 1015.1 |
| 20260506012112 | 57 | 233 | 1.7 | 6.1 | 0.00 | 0.00 | 0.00 | 79 | 1015.1 |
| 20260506012010 | 57 | 273 | 1.7 | 6.1 | 0.00 | 0.00 | 0.00 | 79 | 1015.1 |
| 20260506011804 | 57 | 244 | 1.7 | 6.1 | 0.00 | 0.00 | 0.00 | 79 | 1015.1 |
| 20260506011703 | 57 | 244 | 1.7 | 6.1 | 0.00 | 0.00 | 0.00 | 79 | 1015.1 |
| 20260506011603 | 57 | 261 | 2.6 | 6.1 | 0.00 | 0.00 | 0.00 | 79 | 1015.1 |
| 20260506011515 | 57 | 261 | 2.6 | 6.1 | 0.00 | 0.00 | 0.00 | 79 | 1015.1 |
| 20260506011505 | 57 | 253 | 2.6 | 6.1 | 0.00 | 0.00 | 0.00 | 79 | 1015.1 |
| 20260506011256 | 57 | 234 | 2.6 | 6.1 | 0.00 | 0.00 | 0.00 | 79 | 1015.1 |
| 20260506011155 | 57 | 210 | 2.6 | 6.1 | 0.00 | 0.00 | 0.00 | 79 | 1015.1 |
| 20260506011056 | 57 | 228 | 2.6 | 6.1 | 0.00 | 0.00 | 0.00 | 79 | 1015.1 |
| 20260506010955 | 57 | 258 | 2.6 | 6.1 | 0.00 | 0.00 | 0.00 | 79 | 1015.2 |
| 20260506010753 | 57 | 248 | 2.6 | 8.7 | 0.00 | 0.00 | 0.00 | 79 | 1015.1 |
| 20260506010650 | 57 | 284 | 2.6 | 8.7 | 0.00 | 0.00 | 0.00 | 78 | 1015.1 |
| 20260506010550 | 57 | 270 | 2.6 | 8.7 | 0.00 | 0.00 | 0.00 | 79 | 1015.1 |
| 20260506010450 | 57 | 282 | 2.6 | 8.7 | 0.00 | 0.00 | 0.00 | 79 | 1015.1 |
| 20260506010246 | 57 | 273 | 2.6 | 8.7 | 0.00 | 0.00 | 0.00 | 78 | 1015.1 |
| 20260506010144 | 57 | 261 | 2.6 | 8.7 | 0.00 | 0.00 | 0.00 | 79 | 1015.1 |
| 20260506010044 | 58 | 271 | 2.6 | 8.7 | 0.00 | 0.00 | 0.00 | 79 | 1015.1 |
| 20260506005944 | 58 | 271 | 2.6 | 8.7 | 0.00 | 0.00 | 0.00 | 79 | 1015.1 |
| 20260506005742 | 58 | 231 | 2.6 | 6.1 | 0.00 | 0.00 | 0.00 | 79 | 1015.1 |
| 20260506005642 | 58 | 237 | 2.6 | 6.1 | 0.00 | 0.00 | 0.00 | 79 | 1015.1 |
| 20260506005542 | 58 | 221 | 2.6 | 6.1 | 0.00 | 0.00 | 0.00 | 79 | 1015.1 |
| 20260506005441 | 58 | 238 | 2.6 | 6.1 | 0.00 | 0.00 | 0.00 | 79 | 1015.1 |
| 20260506005232 | 58 | 273 | 1.7 | 6.1 | 0.00 | 0.00 | 0.00 | 79 | 1015.1 |
| 20260506005132 | 58 | 263 | 1.7 | 5.2 | 0.00 | 0.00 | 0.00 | 79 | 1015.1 |
| 20260506005032 | 58 | 234 | 1.7 | 5.2 | 0.00 | 0.00 | 0.00 | 79 | 1015.1 |
| 20260506004932 | 58 | 246 | 2.6 | 7.0 | 0.00 | 0.00 | 0.00 | 79 | 1015.1 |
| 20260506004728 | 58 | 229 | 2.6 | 7.0 | 0.00 | 0.00 | 0.00 | 79 | 1015.1 |
| 20260506004626 | 58 | 274 | 1.7 | 7.0 | 0.00 | 0.00 | 0.00 | 79 | 1015.1 |
| 20260506004526 | 58 | 274 | 2.6 | 7.0 | 0.00 | 0.00 | 0.00 | 79 | 1015.1 |
| 20260506004440 | 58 | 249 | 2.6 | 7.0 | 0.00 | 0.00 | 0.00 | 79 | 1015.1 |
| 20260506004430 | 57 | 249 | 2.6 | 7.0 | 0.00 | 0.00 | 0.00 | 78 | 1015.1 |
| 20260506004222 | 57 | 238 | 2.6 | 7.0 | 0.00 | 0.00 | 0.00 | 79 | 1015.1 |
| 20260506004120 | 58 | 251 | 2.6 | 7.0 | 0.00 | 0.00 | 0.00 | 79 | 1015.1 |
| 20260506004020 | 58 | 273 | 2.6 | 7.0 | 0.00 | 0.00 | 0.00 | 79 | 1015.1 |
| 20260506003920 | 57 | 273 | 2.6 | 7.0 | 0.00 | 0.00 | 0.00 | 79 | 1015.1 |
| 20260506003714 | 57 | 268 | 3.5 | 7.0 | 0.00 | 0.00 | 0.00 | 79 | 1015.1 |
| 20260506003614 | 57 | 260 | 3.5 | 7.0 | 0.00 | 0.00 | 0.00 | 79 | 1015.1 |
| 20260506003514 | 57 | 246 | 3.5 | 7.0 | 0.00 | 0.00 | 0.00 | 79 | 1015.2 |
| 20260506003414 | 57 | 257 | 3.5 | 7.0 | 0.00 | 0.00 | 0.00 | 78 | 1015.2 |
| 20260506003208 | 57 | 260 | 3.5 | 7.0 | 0.00 | 0.00 | 0.00 | 78 | 1015.2 |
| 20260506003108 | 57 | 252 | 3.5 | 7.0 | 0.00 | 0.00 | 0.00 | 78 | 1015.2 |
| 20260506003008 | 57 | 264 | 3.5 | 7.0 | 0.00 | 0.00 | 0.00 | 78 | 1015.1 |
| 20260506002922 | 57 | 294 | 2.6 | 7.0 | 0.00 | 0.00 | 0.00 | 78 | 1015.2 |
| 20260506002912 | 57 | 257 | 2.6 | 7.0 | 0.00 | 0.00 | 0.00 | 78 | 1015.2 |
| 20260506002702 | 58 | 283 | 2.6 | 7.0 | 0.00 | 0.00 | 0.00 | 78 | 1015.1 |
| 20260506002602 | 58 | 281 | 2.6 | 7.0 | 0.00 | 0.00 | 0.00 | 79 | 1015.1 |
| 20260506002502 | 58 | 260 | 2.6 | 7.0 | 0.00 | 0.00 | 0.00 | 79 | 1015.1 |
| 20260506002402 | 58 | 287 | 2.6 | 7.0 | 0.00 | 0.00 | 0.00 | 79 | 1015.1 |
| 20260506002156 | 58 | 232 | 2.6 | 6.1 | 0.00 | 0.00 | 0.00 | 79 | 1015.2 |
| 20260506002056 | 58 | 223 | 2.6 | 6.1 | 0.00 | 0.00 | 0.00 | 78 | 1015.2 |
| 20260506001956 | 58 | 257 | 2.6 | 6.1 | 0.00 | 0.00 | 0.00 | 79 | 1015.2 |
| 20260506001856 | 58 | 261 | 2.6 | 6.1 | 0.00 | 0.00 | 0.00 | 79 | 1015.2 |
| 20260506001650 | 58 | 303 | 2.6 | 8.7 | 0.00 | 0.00 | 0.00 | 79 | 1015.2 |
| 20260506001550 | 58 | 231 | 2.6 | 8.7 | 0.00 | 0.00 | 0.00 | 79 | 1015.2 |
| 20260506001450 | 58 | 263 | 2.6 | 8.7 | 0.00 | 0.00 | 0.00 | 78 | 1015.1 |
| 20260506001403 | 58 | 267 | 2.6 | 8.7 | 0.00 | 0.00 | 0.00 | 78 | 1015.2 |
| 20260506001354 | 58 | 309 | 2.6 | 8.7 | 0.00 | 0.00 | 0.00 | 79 | 1015.1 |
| 20260506001146 | 58 | 286 | 2.6 | 8.7 | 0.00 | 0.00 | 0.00 | 78 | 1015.2 |
| 20260506001046 | 58 | 279 | 2.6 | 8.7 | 0.00 | 0.00 | 0.00 | 78 | 1015.2 |
| 20260506000946 | 58 | 248 | 3.5 | 8.7 | 0.00 | 0.00 | 0.00 | 78 | 1015.2 |
| 20260506000846 | 57 | 277 | 3.5 | 8.7 | 0.00 | 0.00 | 0.00 | 78 | 1015.2 |
| 20260506000641 | 58 | 246 | 2.6 | 7.0 | 0.00 | 0.00 | 0.00 | 78 | 1015.2 |
| 20260506000543 | 58 | 242 | 3.5 | 7.0 | 0.00 | 0.00 | 0.00 | 78 | 1015.2 |
| 20260506000440 | 57 | 242 | 3.5 | 7.0 | 0.00 | 0.00 | 0.00 | 78 | 1015.2 |
| 20260506000340 | 58 | 238 | 3.5 | 7.0 | 0.00 | 0.00 | 0.00 | 78 | 1015.2 |
| 20260506000132 | 58 | 254 | 3.5 | 7.0 | 0.00 | 0.00 | 0.00 | 78 | 1015.2 |
| 20260506000032 | 58 | 275 | 3.5 | 7.0 | 0.00 | 0.00 | 0.00 | 78 | 1015.2 |
| 20260505235932 | 58 | 296 | 3.5 | 7.0 | 0.00 | 0.00 | 0.00 | 78 | 1015.2 |
| 20260505235832 | 58 | 273 | 3.5 | 7.0 | 0.00 | 0.00 | 0.00 | 77 | 1015.2 |
| 20260505235626 | 58 | 239 | 3.5 | 7.8 | 0.00 | 0.00 | 0.00 | 77 | 1015.2 |
| 20260505235526 | 58 | 246 | 3.5 | 7.8 | 0.00 | 0.00 | 0.00 | 78 | 1015.2 |
| 20260505235426 | 58 | 258 | 3.5 | 7.8 | 0.00 | 0.00 | 0.00 | 78 | 1015.2 |
| 20260505235326 | 58 | 230 | 3.5 | 7.8 | 0.00 | 0.00 | 0.00 | 78 | 1015.2 |
| 20260505235120 | 58 | 244 | 3.5 | 7.8 | 0.00 | 0.00 | 0.00 | 78 | 1015.3 |
| 20260505235020 | 58 | 241 | 3.5 | 7.8 | 0.00 | 0.00 | 0.00 | 78 | 1015.2 |
| 20260505234920 | 58 | 232 | 3.5 | 7.8 | 0.00 | 0.00 | 0.00 | 78 | 1015.3 |
| 20260505234820 | 58 | 281 | 3.5 | 7.8 | 0.00 | 0.00 | 0.00 | 78 | 1015.3 |
| 20260505234618 | 58 | 243 | 3.5 | 7.8 | 0.00 | 0.00 | 0.00 | 78 | 1015.3 |
| 20260505234518 | 58 | 242 | 3.5 | 7.8 | 0.00 | 0.00 | 0.00 | 78 | 1015.3 |
| 20260505234416 | 58 | 258 | 3.5 | 7.8 | 0.00 | 0.00 | 0.00 | 78 | 1015.4 |
| 20260505234316 | 58 | 246 | 4.3 | 7.8 | 0.00 | 0.00 | 0.00 | 78 | 1015.4 |
| 20260505234108 | 58 | 239 | 3.5 | 7.8 | 0.00 | 0.00 | 0.00 | 78 | 1015.4 |
| 20260505234008 | 58 | 239 | 3.5 | 7.8 | 0.00 | 0.00 | 0.00 | 78 | 1015.4 |
| 20260505233908 | 58 | 251 | 3.5 | 7.8 | 0.00 | 0.00 | 0.00 | 78 | 1015.4 |
| 20260505233808 | 58 | 269 | 3.5 | 7.8 | 0.00 | 0.00 | 0.00 | 78 | 1015.4 |
| 20260505233602 | 58 | 252 | 2.6 | 7.8 | 0.00 | 0.00 | 0.00 | 78 | 1015.4 |
| 20260505233502 | 58 | 254 | 2.6 | 7.8 | 0.00 | 0.00 | 0.00 | 78 | 1015.4 |
| 20260505233401 | 58 | 232 | 2.6 | 6.1 | 0.00 | 0.00 | 0.00 | 78 | 1015.4 |
| 20260505233301 | 58 | 277 | 2.6 | 6.1 | 0.00 | 0.00 | 0.00 | 78 | 1015.4 |
| 20260505233056 | 58 | 260 | 2.6 | 6.1 | 0.00 | 0.00 | 0.00 | 78 | 1015.4 |
| 20260505232956 | 58 | 297 | 2.6 | 6.1 | 0.00 | 0.00 | 0.00 | 78 | 1015.4 |
| 20260505232856 | 58 | 219 | 2.6 | 6.1 | 0.00 | 0.00 | 0.00 | 78 | 1015.4 |
| 20260505232756 | 58 | 233 | 2.6 | 6.1 | 0.00 | 0.00 | 0.00 | 79 | 1015.4 |
| 20260505232552 | 58 | 269 | 3.5 | 6.1 | 0.00 | 0.00 | 0.00 | 79 | 1015.4 |
| 20260505232449 | 58 | 269 | 3.5 | 9.6 | 0.00 | 0.00 | 0.00 | 78 | 1015.4 |
| 20260505232350 | 58 | 269 | 4.3 | 9.6 | 0.00 | 0.00 | 0.00 | 78 | 1015.4 |
| 20260505232305 | 58 | 228 | 4.3 | 9.6 | 0.00 | 0.00 | 0.00 | 78 | 1015.4 |
| 20260505232253 | 58 | 249 | 4.3 | 9.6 | 0.00 | 0.00 | 0.00 | 78 | 1015.4 |
| 20260505232048 | 58 | 225 | 4.3 | 9.6 | 0.00 | 0.00 | 0.00 | 78 | 1015.4 |
| 20260505231948 | 58 | 242 | 4.3 | 9.6 | 0.00 | 0.00 | 0.00 | 78 | 1015.4 |
| 20260505231848 | 57 | 269 | 4.3 | 9.6 | 0.00 | 0.00 | 0.00 | 77 | 1015.4 |
| 20260505231746 | 57 | 235 | 5.2 | 9.6 | 0.00 | 0.00 | 0.00 | 77 | 1015.5 |
| 20260505231540 | 58 | 253 | 5.2 | 9.6 | 0.00 | 0.00 | 0.00 | 77 | 1015.5 |
| 20260505231439 | 58 | 254 | 5.2 | 8.7 | 0.00 | 0.00 | 0.00 | 77 | 1015.5 |
| 20260505231340 | 58 | 252 | 5.2 | 8.7 | 0.00 | 0.00 | 0.00 | 78 | 1015.5 |
| 20260505231239 | 58 | 222 | 5.2 | 8.7 | 0.00 | 0.00 | 0.00 | 78 | 1015.5 |
| 20260505231034 | 58 | 254 | 5.2 | 7.8 | 0.00 | 0.00 | 0.00 | 77 | 1015.5 |
| 20260505230934 | 58 | 246 | 5.2 | 7.8 | 0.00 | 0.00 | 0.00 | 77 | 1015.5 |
| 20260505230834 | 58 | 235 | 5.2 | 7.8 | 0.00 | 0.00 | 0.00 | 77 | 1015.5 |
| 20260505230734 | 58 | 250 | 4.3 | 7.8 | 0.00 | 0.00 | 0.00 | 77 | 1015.5 |
| 20260505230526 | 58 | 243 | 3.5 | 7.8 | 0.00 | 0.00 | 0.00 | 77 | 1015.5 |
| 20260505230426 | 58 | 247 | 3.5 | 7.8 | 0.00 | 0.00 | 0.00 | 77 | 1015.5 |
| 20260505230326 | 58 | 234 | 3.5 | 7.0 | 0.00 | 0.00 | 0.00 | 77 | 1015.5 |
| 20260505230240 | 58 | 229 | 2.6 | 7.0 | 0.00 | 0.00 | 0.00 | 77 | 1015.5 |
| 20260505230230 | 58 | 261 | 2.6 | 7.0 | 0.00 | 0.00 | 0.00 | 77 | 1015.5 |
| 20260505230032 | 58 | 227 | 2.6 | 7.0 | 0.00 | 0.00 | 0.00 | 77 | 1015.6 |
| 20260505225928 | 58 | 273 | 2.6 | 7.0 | 0.00 | 0.00 | 0.00 | 77 | 1015.5 |
| 20260505225828 | 58 | 290 | 2.6 | 7.0 | 0.00 | 0.00 | 0.00 | 78 | 1015.5 |
| 20260505225727 | 58 | 253 | 2.6 | 7.0 | 0.00 | 0.00 | 0.00 | 78 | 1015.6 |
| 20260505225519 | 58 | 308 | 2.6 | 7.0 | 0.00 | 0.00 | 0.00 | 78 | 1015.6 |
| 20260505225414 | 58 | 292 | 2.6 | 7.0 | 0.00 | 0.00 | 0.00 | 78 | 1015.6 |
| 20260505225314 | 58 | 277 | 2.6 | 7.0 | 0.00 | 0.00 | 0.00 | 78 | 1015.6 |
| 20260505225214 | 58 | 249 | 3.5 | 7.0 | 0.00 | 0.00 | 0.00 | 78 | 1015.6 |
| 20260505225007 | 58 | 242 | 3.5 | 8.7 | 0.00 | 0.00 | 0.00 | 78 | 1015.6 |
| 20260505224908 | 58 | 271 | 3.5 | 8.7 | 0.00 | 0.00 | 0.00 | 77 | 1015.6 |
| 20260505224807 | 58 | 230 | 3.5 | 8.7 | 0.00 | 0.00 | 0.00 | 77 | 1015.5 |
| 20260505224707 | 58 | 250 | 3.5 | 8.7 | 0.00 | 0.00 | 0.00 | 77 | 1015.6 |
| 20260505224504 | 58 | 231 | 3.5 | 8.7 | 0.00 | 0.00 | 0.00 | 77 | 1015.6 |
| 20260505224404 | 58 | 236 | 3.5 | 8.7 | 0.00 | 0.00 | 0.00 | 77 | 1015.6 |
| 20260505224304 | 58 | 245 | 3.5 | 8.7 | 0.00 | 0.00 | 0.00 | 77 | 1015.6 |
| 20260505224204 | 58 | 229 | 3.5 | 8.7 | 0.00 | 0.00 | 0.00 | 77 | 1015.6 |
| 20260505223958 | 58 | 238 | 4.3 | 8.7 | 0.00 | 0.00 | 0.00 | 77 | 1015.7 |
| 20260505223858 | 58 | 279 | 4.3 | 8.7 | 0.00 | 0.00 | 0.00 | 78 | 1015.6 |
| 20260505223758 | 58 | 276 | 4.3 | 8.7 | 0.00 | 0.00 | 0.00 | 78 | 1015.7 |
| 20260505223658 | 58 | 263 | 4.3 | 8.7 | 0.00 | 0.00 | 0.00 | 77 | 1015.7 |
| 20260505223451 | 58 | 233 | 4.3 | 8.7 | 0.00 | 0.00 | 0.00 | 77 | 1015.6 |
| 20260505223350 | 58 | 242 | 4.3 | 8.7 | 0.00 | 0.00 | 0.00 | 77 | 1015.7 |
| 20260505223250 | 58 | 246 | 4.3 | 8.7 | 0.00 | 0.00 | 0.00 | 77 | 1015.6 |
| 20260505223150 | 58 | 272 | 4.3 | 8.7 | 0.00 | 0.00 | 0.00 | 77 | 1015.7 |
| 20260505222944 | 58 | 275 | 4.3 | 8.7 | 0.00 | 0.00 | 0.00 | 77 | 1015.7 |
| 20260505222844 | 58 | 270 | 4.3 | 8.7 | 0.00 | 0.00 | 0.00 | 77 | 1015.6 |
| 20260505222744 | 58 | 260 | 4.3 | 8.7 | 0.00 | 0.00 | 0.00 | 77 | 1015.6 |
| 20260505222643 | 58 | 236 | 4.3 | 8.7 | 0.00 | 0.00 | 0.00 | 77 | 1015.7 |
| 20260505222438 | 58 | 226 | 5.2 | 8.7 | 0.00 | 0.00 | 0.00 | 76 | 1015.7 |
| 20260505222338 | 58 | 211 | 5.2 | 8.7 | 0.00 | 0.00 | 0.00 | 76 | 1015.7 |
| 20260505222238 | 58 | 222 | 5.2 | 8.7 | 0.00 | 0.00 | 0.00 | 76 | 1015.7 |
| 20260505222138 | 59 | 271 | 4.3 | 8.7 | 0.00 | 0.00 | 0.00 | 77 | 1015.7 |
| 20260505221934 | 59 | 272 | 4.3 | 7.8 | 0.00 | 0.00 | 0.00 | 77 | 1015.7 |
| 20260505221834 | 59 | 271 | 4.3 | 7.8 | 0.00 | 0.00 | 0.00 | 77 | 1015.8 |
| 20260505221734 | 59 | 262 | 4.3 | 7.8 | 0.00 | 0.00 | 0.00 | 77 | 1015.8 |
| 20260505221634 | 59 | 270 | 3.5 | 7.8 | 0.00 | 0.00 | 0.00 | 77 | 1015.8 |
| 20260505221426 | 59 | 259 | 3.5 | 7.8 | 0.00 | 0.00 | 0.00 | 77 | 1015.8 |
| 20260505221326 | 59 | 235 | 3.5 | 7.8 | 0.00 | 0.00 | 0.00 | 77 | 1015.8 |
| 20260505221225 | 59 | 287 | 3.5 | 7.8 | 0.00 | 0.00 | 0.00 | 77 | 1015.8 |
| 20260505221126 | 59 | 288 | 2.6 | 7.8 | 0.00 | 0.00 | 0.00 | 77 | 1015.8 |
| 20260505220920 | 59 | 252 | 2.6 | 6.1 | 0.00 | 0.00 | 0.00 | 77 | 1015.8 |
| 20260505220820 | 59 | 269 | 2.6 | 6.1 | 0.00 | 0.00 | 0.00 | 77 | 1015.8 |
| 20260505220720 | 59 | 280 | 2.6 | 6.1 | 0.00 | 0.00 | 0.00 | 77 | 1015.9 |
| 20260505220620 | 59 | 232 | 3.5 | 7.0 | 0.00 | 0.00 | 0.00 | 77 | 1015.8 |
| 20260505220416 | 59 | 269 | 3.5 | 9.6 | 0.00 | 0.00 | 0.00 | 77 | 1015.8 |
| 20260505220314 | 59 | 271 | 3.5 | 9.6 | 0.00 | 0.00 | 0.00 | 77 | 1015.8 |
| 20260505220214 | 59 | 273 | 4.3 | 9.6 | 0.00 | 0.00 | 0.00 | 77 | 1015.8 |
| 20260505220114 | 59 | 259 | 4.3 | 9.6 | 0.00 | 0.00 | 0.00 | 77 | 1015.9 |
| 20260505215909 | 58 | 217 | 4.3 | 9.6 | 0.00 | 0.00 | 0.00 | 76 | 1015.8 |
| 20260505215810 | 59 | 225 | 4.3 | 9.6 | 0.00 | 0.00 | 0.00 | 76 | 1015.8 |
| 20260505215709 | 59 | 269 | 4.3 | 9.6 | 0.00 | 0.00 | 0.00 | 76 | 1015.9 |
| 20260505215609 | 59 | 242 | 4.3 | 9.6 | 0.00 | 0.00 | 0.00 | 76 | 1015.8 |
| 20260505215404 | 59 | 221 | 4.3 | 7.8 | 0.00 | 0.00 | 0.00 | 76 | 1015.8 |
| 20260505215305 | 59 | 285 | 4.3 | 7.8 | 0.00 | 0.00 | 0.00 | 77 | 1015.8 |
| 20260505215202 | 59 | 254 | 3.5 | 7.8 | 0.00 | 0.00 | 0.00 | 77 | 1015.8 |
| 20260505215102 | 59 | 257 | 3.5 | 7.8 | 0.00 | 0.00 | 0.00 | 77 | 1015.8 |
| 20260505214900 | 59 | 273 | 3.5 | 10.4 | 0.00 | 0.00 | 0.00 | 77 | 1015.8 |
| 20260505214800 | 59 | 263 | 4.3 | 10.4 | 0.00 | 0.00 | 0.00 | 77 | 1015.8 |
| 20260505214700 | 59 | 271 | 4.3 | 10.4 | 0.00 | 0.00 | 0.00 | 77 | 1015.8 |
| 20260505214600 | 59 | 252 | 4.3 | 10.4 | 0.00 | 0.00 | 0.00 | 77 | 1015.7 |
| 20260505214500 | 59 | 282 | 4.3 | 10.4 | 0.00 | 0.00 | 0.00 | 77 | 1015.7 |
| 20260505214400 | 59 | 236 | 4.3 | 10.4 | 0.00 | 0.00 | 0.00 | 77 | 1015.8 |
| 20260505214300 | 59 | 304 | 4.3 | 10.4 | 0.00 | 0.00 | 0.00 | 77 | 1015.8 |
| 20260505214200 | 59 | 271 | 4.3 | 10.4 | 0.00 | 0.00 | 0.00 | 77 | 1015.8 |
| 20260505214100 | 59 | 270 | 5.2 | 10.4 | 0.00 | 0.00 | 0.00 | 77 | 1015.9 |
| 20260505214000 | 59 | 246 | 5.2 | 10.4 | 0.00 | 0.00 | 0.00 | 77 | 1015.9 |
| 20260505213905 | 59 | 259 | 5.2 | 10.4 | 0.00 | 0.00 | 0.00 | 77 | 1015.8 |
| 20260505213800 | 59 | 267 | 5.2 | 10.4 | 0.00 | 0.00 | 0.00 | 77 | 1015.9 |
| 20260505213700 | 58 | 265 | 5.2 | 11.3 | 0.00 | 0.00 | 0.00 | 77 | 1015.8 |
| 20260505213600 | 58 | 229 | 5.2 | 11.3 | 0.00 | 0.00 | 0.00 | 77 | 1015.8 |
| 20260505213500 | 58 | 218 | 6.1 | 11.3 | 0.00 | 0.00 | 0.00 | 77 | 1015.8 |
| 20260505213400 | 58 | 262 | 5.2 | 11.3 | 0.00 | 0.00 | 0.00 | 76 | 1015.8 |
| 20260505213300 | 58 | 238 | 5.2 | 11.3 | 0.00 | 0.00 | 0.00 | 76 | 1015.8 |
| 20260505213156 | 58 | 219 | 5.2 | 11.3 | 0.00 | 0.00 | 0.00 | 76 | 1015.8 |
| 20260505213054 | 59 | 253 | 5.2 | 11.3 | 0.00 | 0.00 | 0.00 | 76 | 1015.9 |
| 20260505212953 | 59 | 247 | 5.2 | 11.3 | 0.00 | 0.00 | 0.00 | 76 | 1015.9 |
| 20260505212853 | 59 | 238 | 4.3 | 11.3 | 0.00 | 0.00 | 0.00 | 76 | 1015.9 |
| 20260505212753 | 59 | 246 | 4.3 | 11.3 | 0.00 | 0.00 | 0.00 | 77 | 1015.9 |
| 20260505212648 | 59 | 240 | 4.3 | 9.6 | 0.00 | 0.00 | 0.00 | 76 | 1015.9 |
| 20260505212547 | 59 | 227 | 4.3 | 9.6 | 0.00 | 0.00 | 0.00 | 77 | 1015.9 |
| 20260505212447 | 59 | 248 | 4.3 | 9.6 | 0.00 | 0.00 | 0.00 | 77 | 1015.9 |
| 20260505212347 | 59 | 274 | 5.2 | 9.6 | 0.00 | 0.00 | 0.00 | 76 | 1015.9 |
| 20260505212248 | 59 | 190 | 5.2 | 10.4 | 0.00 | 0.00 | 0.00 | 76 | 1015.9 |
| 20260505212141 | 59 | 236 | 5.2 | 10.4 | 0.00 | 0.00 | 0.00 | 76 | 1015.9 |
| 20260505212100 | 59 | 242 | 5.2 | 10.4 | 0.00 | 0.00 | 0.00 | 76 | 1015.9 |
| 20260505211941 | 59 | 261 | 5.2 | 10.4 | 0.00 | 0.00 | 0.00 | 77 | 1015.9 |
| 20260505211841 | 59 | 263 | 6.1 | 10.4 | 0.00 | 0.00 | 0.00 | 77 | 1015.9 |
| 20260505211742 | 59 | 288 | 5.2 | 10.4 | 0.00 | 0.00 | 0.00 | 77 | 1015.9 |
| 20260505211642 | 59 | 246 | 6.1 | 10.4 | 0.00 | 0.00 | 0.00 | 76 | 1015.9 |
| 20260505211540 | 59 | 258 | 6.1 | 10.4 | 0.00 | 0.00 | 0.00 | 76 | 1015.8 |
| 20260505211440 | 59 | 257 | 5.2 | 10.4 | 0.00 | 0.00 | 0.00 | 75 | 1015.8 |
| 20260505211340 | 59 | 244 | 5.2 | 10.4 | 0.00 | 0.00 | 0.00 | 75 | 1015.8 |
| 20260505211239 | 59 | 252 | 4.3 | 10.4 | 0.00 | 0.00 | 0.00 | 76 | 1015.8 |
| 20260505211139 | 59 | 251 | 4.3 | 10.4 | 0.00 | 0.00 | 0.00 | 75 | 1015.8 |
| 20260505211040 | 59 | 250 | 3.5 | 10.4 | 0.00 | 0.00 | 0.00 | 75 | 1015.8 |
| 20260505210940 | 60 | 249 | 3.5 | 10.4 | 0.00 | 0.00 | 0.00 | 76 | 1015.8 |
| 20260505210840 | 60 | 244 | 3.5 | 9.6 | 0.00 | 0.00 | 0.00 | 76 | 1015.7 |
| 20260505210740 | 59 | 241 | 3.5 | 9.6 | 0.00 | 0.00 | 0.00 | 77 | 1015.7 |
| 20260505210640 | 59 | 254 | 3.5 | 9.6 | 0.00 | 0.00 | 0.00 | 77 | 1015.7 |
| 20260505210539 | 59 | 232 | 3.5 | 9.6 | 0.00 | 0.00 | 0.00 | 77 | 1015.7 |
| 20260505210433 | 59 | 232 | 4.3 | 9.6 | 0.00 | 0.00 | 0.00 | 77 | 1015.7 |
| 20260505210333 | 59 | 229 | 4.3 | 9.6 | 0.00 | 0.00 | 0.00 | 78 | 1015.8 |
| 20260505210233 | 59 | 248 | 4.3 | 9.6 | 0.00 | 0.00 | 0.00 | 78 | 1015.8 |
| 20260505210133 | 59 | 259 | 5.2 | 9.6 | 0.00 | 0.00 | 0.00 | 78 | 1015.7 |
| 20260505210033 | 59 | 256 | 5.2 | 9.6 | 0.00 | 0.00 | 0.00 | 78 | 1015.7 |
| 20260505205933 | 59 | 267 | 5.2 | 9.6 | 0.00 | 0.00 | 0.00 | 78 | 1015.8 |
| 20260505205833 | 58 | 292 | 5.2 | 9.6 | 0.00 | 0.00 | 0.00 | 77 | 1015.8 |
| 20260505205734 | 58 | 241 | 5.2 | 9.6 | 0.00 | 0.00 | 0.00 | 77 | 1015.8 |
| 20260505205634 | 58 | 232 | 5.2 | 9.6 | 0.00 | 0.00 | 0.00 | 76 | 1015.7 |
| 20260505205533 | 59 | 275 | 5.2 | 9.6 | 0.00 | 0.00 | 0.00 | 77 | 1015.8 |
| 20260505205433 | 59 | 242 | 4.3 | 9.6 | 0.00 | 0.00 | 0.00 | 77 | 1015.8 |
| 20260505205333 | 59 | 265 | 4.3 | 9.6 | 0.00 | 0.00 | 0.00 | 77 | 1015.7 |
| 20260505205229 | 59 | 269 | 4.3 | 9.6 | 0.00 | 0.00 | 0.00 | 77 | 1015.8 |
| 20260505205129 | 59 | 267 | 4.3 | 9.6 | 0.00 | 0.00 | 0.00 | 77 | 1015.8 |
| 20260505205029 | 59 | 266 | 4.3 | 9.6 | 0.00 | 0.00 | 0.00 | 78 | 1015.8 |
| 20260505204929 | 59 | 270 | 5.2 | 9.6 | 0.00 | 0.00 | 0.00 | 78 | 1015.9 |
| 20260505204829 | 58 | 211 | 5.2 | 9.6 | 0.00 | 0.00 | 0.00 | 78 | 1015.8 |
| 20260505204729 | 58 | 289 | 5.2 | 9.6 | 0.00 | 0.00 | 0.00 | 77 | 1015.9 |
| 20260505204629 | 58 | 262 | 6.1 | 9.6 | 0.00 | 0.00 | 0.00 | 77 | 1015.9 |
| 20260505204558 | 58 | 219 | 6.1 | 9.6 | 0.00 | 0.00 | 0.00 | 77 | 1015.8 |
| 20260505204430 | 58 | 247 | 6.1 | 9.6 | 0.00 | 0.00 | 0.00 | 77 | 1015.8 |
| 20260505204329 | 58 | 254 | 6.1 | 9.6 | 0.00 | 0.00 | 0.00 | 77 | 1015.9 |
| 20260505204230 | 58 | 279 | 6.1 | 9.6 | 0.00 | 0.00 | 0.00 | 77 | 1015.8 |
| 20260505204130 | 58 | 230 | 6.1 | 9.6 | 0.00 | 0.00 | 0.00 | 76 | 1015.9 |
| 20260505204030 | 59 | 241 | 6.1 | 9.6 | 0.00 | 0.00 | 0.00 | 77 | 1015.9 |
| 20260505203930 | 59 | 275 | 5.2 | 9.6 | 0.00 | 0.00 | 0.00 | 77 | 1016.0 |
| 20260505203830 | 59 | 244 | 5.2 | 9.6 | 0.00 | 0.00 | 0.00 | 77 | 1016.0 |
| 20260505203730 | 59 | 227 | 5.2 | 9.6 | 0.00 | 0.00 | 0.00 | 77 | 1015.9 |
| 20260505203630 | 59 | 244 | 4.3 | 9.6 | 0.00 | 0.00 | 0.00 | 77 | 1016.0 |
| 20260505203530 | 59 | 274 | 4.3 | 9.6 | 0.00 | 0.00 | 0.00 | 77 | 1016.0 |
| 20260505203430 | 59 | 250 | 4.3 | 9.6 | 0.00 | 0.00 | 0.00 | 77 | 1016.0 |
| 20260505203325 | 59 | 218 | 4.3 | 9.6 | 0.00 | 0.00 | 0.00 | 77 | 1016.0 |
| 20260505203225 | 59 | 229 | 4.3 | 9.6 | 0.00 | 0.00 | 0.00 | 77 | 1015.9 |
| 20260505203126 | 59 | 263 | 4.3 | 9.6 | 0.00 | 0.00 | 0.00 | 77 | 1016.0 |
| 20260505203026 | 59 | 270 | 4.3 | 9.6 | 0.00 | 0.00 | 0.00 | 77 | 1015.9 |
| 20260505202925 | 59 | 244 | 4.3 | 10.4 | 0.00 | 0.00 | 0.00 | 77 | 1015.9 |
| 20260505202825 | 59 | 239 | 4.3 | 10.4 | 0.00 | 0.00 | 0.00 | 78 | 1016.0 |
| 20260505202725 | 58 | 277 | 4.3 | 10.4 | 0.00 | 0.00 | 0.00 | 78 | 1016.0 |
| 20260505202625 | 58 | 229 | 4.3 | 10.4 | 0.00 | 0.00 | 0.00 | 78 | 1015.9 |
| 20260505202525 | 58 | 279 | 4.3 | 10.4 | 0.00 | 0.00 | 0.00 | 77 | 1015.9 |
| 20260505202425 | 58 | 293 | 4.3 | 10.4 | 0.00 | 0.00 | 0.00 | 77 | 1015.9 |
| 20260505202325 | 58 | 213 | 4.3 | 10.4 | 0.00 | 0.00 | 0.00 | 77 | 1015.9 |
| 20260505202226 | 58 | 244 | 4.3 | 10.4 | 0.00 | 0.00 | 0.00 | 77 | 1015.9 |
| 20260505202126 | 58 | 244 | 4.3 | 10.4 | 0.00 | 0.00 | 0.00 | 77 | 1015.9 |
| 20260505202026 | 58 | 244 | 4.3 | 10.4 | 0.00 | 0.00 | 0.00 | 77 | 1015.9 |
| 20260505201926 | 58 | 292 | 4.3 | 8.7 | 0.00 | 0.00 | 0.00 | 77 | 1015.9 |
| 20260505201826 | 58 | 234 | 4.3 | 8.7 | 0.00 | 0.00 | 0.00 | 77 | 1015.8 |
| 20260505201726 | 58 | 252 | 4.3 | 8.7 | 0.00 | 0.00 | 0.00 | 77 | 1015.8 |
| 20260505201626 | 58 | 212 | 4.3 | 8.7 | 0.00 | 0.00 | 0.00 | 77 | 1015.9 |
| 20260505201526 | 58 | 254 | 4.3 | 8.7 | 0.00 | 0.00 | 0.00 | 77 | 1015.8 |
| 20260505201422 | 58 | 259 | 4.3 | 8.7 | 0.00 | 0.00 | 0.00 | 77 | 1015.8 |
| 20260505201322 | 58 | 280 | 4.3 | 8.7 | 0.00 | 0.00 | 0.00 | 78 | 1015.8 |
| 20260505201222 | 59 | 260 | 4.3 | 8.7 | 0.00 | 0.00 | 0.00 | 78 | 1015.9 |
| 20260505201121 | 58 | 250 | 4.3 | 8.7 | 0.00 | 0.00 | 0.00 | 78 | 1015.9 |
| 20260505201053 | 58 | 237 | 3.5 | 8.7 | 0.00 | 0.00 | 0.00 | 78 | 1015.9 |
| 20260505200921 | 58 | 261 | 4.3 | 8.7 | 0.00 | 0.00 | 0.00 | 77 | 1015.9 |
| 20260505200821 | 58 | 220 | 4.3 | 8.7 | 0.00 | 0.00 | 0.00 | 77 | 1015.9 |
| 20260505200721 | 58 | 265 | 4.3 | 8.7 | 0.00 | 0.00 | 0.00 | 77 | 1015.8 |
| 20260505200621 | 58 | 252 | 4.3 | 8.7 | 0.00 | 0.00 | 0.00 | 77 | 1015.9 |
| 20260505200553 | 58 | 290 | 4.3 | 8.7 | 0.00 | 0.00 | 0.00 | 77 | 1015.9 |
| 20260505200421 | 58 | 228 | 4.3 | 8.7 | 0.00 | 0.00 | 0.00 | 77 | 1015.9 |
| 20260505200321 | 58 | 236 | 4.3 | 8.7 | 0.00 | 0.00 | 0.00 | 77 | 1015.8 |
| 20260505200221 | 58 | 248 | 3.5 | 7.8 | 0.00 | 0.00 | 0.00 | 78 | 1015.8 |
| 20260505200122 | 58 | 303 | 3.5 | 7.8 | 0.00 | 0.00 | 0.00 | 78 | 1015.8 |
| 20260505200022 | 58 | 294 | 4.3 | 7.8 | 0.00 | 0.00 | 0.00 | 77 | 1015.9 |
| 20260505195922 | 58 | 254 | 4.3 | 8.7 | 0.00 | 0.00 | 0.00 | 77 | 1015.9 |
| 20260505195822 | 58 | 236 | 4.3 | 8.7 | 0.00 | 0.00 | 0.00 | 78 | 1015.9 |
| 20260505195721 | 58 | 271 | 4.3 | 8.7 | 0.00 | 0.00 | 0.00 | 78 | 1015.8 |
| 20260505195622 | 58 | 249 | 4.3 | 8.7 | 0.00 | 0.00 | 0.00 | 77 | 1015.8 |
| 20260505195518 | 58 | 263 | 4.3 | 8.7 | 0.00 | 0.00 | 0.00 | 77 | 1015.8 |
| 20260505195418 | 58 | 250 | 4.3 | 9.6 | 0.00 | 0.00 | 0.00 | 77 | 1015.8 |
| 20260505195318 | 58 | 277 | 4.3 | 9.6 | 0.00 | 0.00 | 0.00 | 77 | 1015.8 |
| 20260505195218 | 58 | 284 | 4.3 | 9.6 | 0.00 | 0.00 | 0.00 | 77 | 1015.8 |
| 20260505195118 | 58 | 254 | 4.3 | 9.6 | 0.00 | 0.00 | 0.00 | 76 | 1015.8 |
| 20260505195018 | 58 | 266 | 4.3 | 9.6 | 0.00 | 0.00 | 0.00 | 76 | 1015.7 |
| 20260505194917 | 58 | 249 | 4.3 | 9.6 | 0.00 | 0.00 | 0.00 | 76 | 1015.7 |
| 20260505194818 | 58 | 238 | 4.3 | 9.6 | 0.00 | 0.00 | 0.00 | 76 | 1015.7 |
| 20260505194718 | 58 | 242 | 4.3 | 9.6 | 0.00 | 0.00 | 0.00 | 76 | 1015.8 |
| 20260505194618 | 58 | 254 | 3.5 | 9.6 | 0.00 | 0.00 | 0.00 | 76 | 1015.7 |
| 20260505194518 | 59 | 236 | 3.5 | 9.6 | 0.00 | 0.00 | 0.00 | 76 | 1015.7 |
| 20260505194418 | 59 | 258 | 3.5 | 8.7 | 0.00 | 0.00 | 0.00 | 76 | 1015.7 |
| 20260505194318 | 59 | 248 | 3.5 | 8.7 | 0.00 | 0.00 | 0.00 | 76 | 1015.7 |
| 20260505194218 | 59 | 250 | 3.5 | 8.7 | 0.00 | 0.00 | 0.00 | 76 | 1015.7 |
| 20260505194118 | 59 | 233 | 3.5 | 8.7 | 0.00 | 0.00 | 0.00 | 76 | 1015.7 |
| 20260505194018 | 59 | 279 | 3.5 | 8.7 | 0.00 | 0.00 | 0.00 | 76 | 1015.7 |
| 20260505193917 | 59 | 245 | 2.6 | 6.1 | 0.00 | 0.00 | 0.00 | 76 | 1015.7 |
| 20260505193818 | 59 | 288 | 2.6 | 6.1 | 0.00 | 0.00 | 0.00 | 76 | 1015.7 |
| 20260505193717 | 59 | 277 | 2.6 | 6.1 | 0.00 | 0.00 | 0.00 | 76 | 1015.7 |
| 20260505193613 | 59 | 290 | 2.6 | 6.1 | 0.00 | 0.00 | 0.00 | 76 | 1015.7 |
| 20260505193513 | 59 | 255 | 2.6 | 6.1 | 0.00 | 0.00 | 0.00 | 76 | 1015.7 |
| 20260505193415 | 59 | 265 | 2.6 | 6.1 | 0.00 | 0.00 | 0.00 | 76 | 1015.6 |
| 20260505193314 | 59 | 301 | 2.6 | 6.1 | 0.00 | 0.00 | 0.00 | 76 | 1015.7 |